| time (UTC) | temp F | wind direction | speed MPH | gust MPH | rain 1hr in | rain 24hr in | rain mn in | humidity % | barometer mb |
| 20260505235312 | 64 | 188 | 5.0 | 16.0 | 0.00 | 0.00 | 0.00 | 64 | 1011.5 |
| 20260505235211 | 64 | 114 | 5.0 | 16.0 | 0.00 | 0.00 | 0.00 | 64 | 1011.4 |
| 20260505235110 | 64 | 128 | 5.0 | 16.0 | 0.00 | 0.00 | 0.00 | 65 | 1011.5 |
| 20260505235011 | 64 | 202 | 5.0 | 16.0 | 0.00 | 0.00 | 0.00 | 65 | 1011.4 |
| 20260505234913 | 64 | 218 | 5.0 | 15.0 | 0.00 | 0.00 | 0.00 | 65 | 1011.4 |
| 20260505234812 | 64 | 178 | 5.0 | 14.0 | 0.00 | 0.00 | 0.00 | 64 | 1011.5 |
| 20260505234711 | 64 | 186 | 5.0 | 14.0 | 0.00 | 0.00 | 0.00 | 64 | 1011.4 |
| 20260505234611 | 64 | 199 | 5.0 | 14.0 | 0.00 | 0.00 | 0.00 | 64 | 1011.4 |
| 20260505234511 | 64 | 168 | 5.0 | 19.0 | 0.00 | 0.00 | 0.00 | 64 | 1011.4 |
| 20260505234410 | 64 | 196 | 5.0 | 19.0 | 0.00 | 0.00 | 0.00 | 64 | 1011.4 |
| 20260505234311 | 64 | 199 | 5.0 | 19.0 | 0.00 | 0.00 | 0.00 | 64 | 1011.5 |
| 20260505234211 | 64 | 196 | 5.0 | 19.0 | 0.00 | 0.00 | 0.00 | 64 | 1011.5 |
| 20260505234145 | 64 | 162 | 5.0 | 19.0 | 0.00 | 0.00 | 0.00 | 64 | 1011.4 |
| 20260505234133 | 64 | 98 | 5.0 | 19.0 | 0.00 | 0.00 | 0.00 | 64 | 1011.7 |
| 20260505233909 | 64 | 180 | 6.0 | 19.0 | 0.00 | 0.00 | 0.00 | 64 | 1011.5 |
| 20260505233810 | 64 | 199 | 6.0 | 19.0 | 0.00 | 0.00 | 0.00 | 64 | 1011.5 |
| 20260505233742 | 64 | 164 | 6.0 | 19.0 | 0.00 | 0.00 | 0.00 | 64 | 1011.5 |
| 20260505233730 | 64 | 238 | 6.0 | 19.0 | 0.00 | 0.00 | 0.00 | 64 | 1011.7 |
| 20260505233509 | 64 | 147 | 6.0 | 18.0 | 0.00 | 0.00 | 0.00 | 64 | 1011.7 |
| 20260505233444 | 64 | 217 | 6.0 | 18.0 | 0.00 | 0.00 | 0.00 | 64 | 1011.7 |
| 20260505233434 | 64 | 150 | 6.0 | 18.0 | 0.00 | 0.00 | 0.00 | 64 | 1011.7 |
| 20260505233210 | 64 | 175 | 6.0 | 18.0 | 0.00 | 0.00 | 0.00 | 64 | 1011.7 |
| 20260505233111 | 64 | 200 | 6.0 | 18.0 | 0.00 | 0.00 | 0.00 | 64 | 1011.5 |
| 20260505233013 | 64 | 192 | 6.0 | 18.0 | 0.00 | 0.00 | 0.00 | 64 | 1011.5 |
| 20260505232910 | 64 | 195 | 6.0 | 18.0 | 0.00 | 0.00 | 0.00 | 64 | 1011.5 |
| 20260505232810 | 64 | 175 | 6.0 | 18.0 | 0.00 | 0.00 | 0.00 | 64 | 1011.5 |
| 20260505232710 | 64 | 186 | 6.0 | 18.0 | 0.00 | 0.00 | 0.00 | 64 | 1011.5 |
| 20260505232612 | 64 | 147 | 6.0 | 18.0 | 0.00 | 0.00 | 0.00 | 64 | 1011.7 |
| 20260505232601 | 64 | 180 | 5.0 | 15.0 | 0.00 | 0.00 | 0.00 | 64 | 1011.7 |
| 20260505232555 | 64 | 216 | 5.0 | 15.0 | 0.00 | 0.00 | 0.00 | 64 | 1011.8 |
| 20260505232535 | 64 | 205 | 6.0 | 18.0 | 0.00 | 0.00 | 0.00 | 64 | 1011.5 |
| 20260505232516 | 64 | 211 | 5.0 | 15.0 | 0.00 | 0.00 | 0.00 | 64 | 1011.7 |
| 20260505232228 | 64 | 192 | 5.0 | 15.0 | 0.00 | 0.00 | 0.00 | 64 | 1011.7 |
| 20260505232007 | 64 | 166 | 5.0 | 15.0 | 0.00 | 0.00 | 0.00 | 64 | 1011.8 |
| 20260505231906 | 64 | 175 | 5.0 | 15.0 | 0.00 | 0.00 | 0.00 | 64 | 1011.8 |
| 20260505231859 | 64 | 174 | 5.0 | 15.0 | 0.00 | 0.00 | 0.00 | 64 | 1011.8 |
| 20260505231839 | 64 | 205 | 5.0 | 15.0 | 0.00 | 0.00 | 0.00 | 64 | 1011.8 |
| 20260505231639 | 64 | 202 | 5.0 | 19.0 | 0.00 | 0.00 | 0.00 | 63 | 1011.9 |
| 20260505231628 | 64 | 175 | 5.0 | 19.0 | 0.00 | 0.00 | 0.00 | 63 | 1011.8 |
| 20260505231406 | 64 | 200 | 6.0 | 19.0 | 0.00 | 0.00 | 0.00 | 63 | 1011.9 |
| 20260505231305 | 64 | 237 | 6.0 | 19.0 | 0.00 | 0.00 | 0.00 | 63 | 1011.8 |
| 20260505231205 | 64 | 189 | 5.0 | 19.0 | 0.00 | 0.00 | 0.00 | 63 | 1011.9 |
| 20260505231104 | 64 | 190 | 5.0 | 19.0 | 0.00 | 0.00 | 0.00 | 64 | 1011.8 |
| 20260505231005 | 64 | 155 | 5.0 | 19.0 | 0.00 | 0.00 | 0.00 | 64 | 1011.8 |
| 20260505230934 | 64 | 233 | 5.0 | 19.0 | 0.00 | 0.00 | 0.00 | 63 | 1011.9 |
| 20260505230924 | 64 | 153 | 5.0 | 19.0 | 0.00 | 0.00 | 0.00 | 64 | 1011.8 |
| 20260505230703 | 64 | 217 | 6.0 | 19.0 | 0.00 | 0.00 | 0.00 | 64 | 1011.9 |
| 20260505230604 | 64 | 186 | 6.0 | 19.0 | 0.00 | 0.00 | 0.00 | 63 | 1011.9 |
| 20260505230504 | 64 | 197 | 6.0 | 16.0 | 0.00 | 0.00 | 0.00 | 63 | 1011.8 |
| 20260505230431 | 64 | 172 | 6.0 | 16.0 | 0.00 | 0.00 | 0.00 | 63 | 1011.5 |
| 20260505230422 | 64 | 186 | 6.0 | 16.0 | 0.00 | 0.00 | 0.00 | 63 | 1011.7 |
| 20260505230158 | 64 | 222 | 6.0 | 16.0 | 0.00 | 0.00 | 0.00 | 63 | 1011.5 |
| 20260505230100 | 64 | 196 | 6.0 | 16.0 | 0.00 | 0.00 | 0.00 | 63 | 1011.7 |
| 20260505225957 | 64 | 180 | 5.0 | 16.0 | 0.00 | 0.00 | 0.00 | 63 | 1011.7 |
| 20260505225858 | 64 | 182 | 5.0 | 16.0 | 0.00 | 0.00 | 0.00 | 63 | 1011.8 |
| 20260505225752 | 64 | 175 | 5.0 | 16.0 | 0.00 | 0.00 | 0.00 | 63 | 1011.7 |
| 20260505225651 | 64 | 188 | 5.0 | 15.0 | 0.00 | 0.00 | 0.00 | 63 | 1011.5 |
| 20260505225552 | 64 | 143 | 4.0 | 14.0 | 0.00 | 0.00 | 0.00 | 63 | 1011.8 |
| 20260505225452 | 64 | 187 | 4.0 | 13.0 | 0.00 | 0.00 | 0.00 | 63 | 1011.8 |
| 20260505225351 | 64 | 195 | 4.0 | 13.0 | 0.00 | 0.00 | 0.00 | 64 | 1011.9 |
| 20260505225244 | 64 | 219 | 4.0 | 12.0 | 0.00 | 0.00 | 0.00 | 63 | 1012.0 |
| 20260505225145 | 64 | 189 | 4.0 | 14.0 | 0.00 | 0.00 | 0.00 | 63 | 1012.0 |
| 20260505225045 | 65 | 154 | 4.0 | 14.0 | 0.00 | 0.00 | 0.00 | 64 | 1012.1 |
| 20260505224944 | 65 | 150 | 4.0 | 14.0 | 0.00 | 0.00 | 0.00 | 63 | 1012.0 |
| 20260505224845 | 65 | 185 | 4.0 | 14.0 | 0.00 | 0.00 | 0.00 | 64 | 1012.1 |
| 20260505224808 | 65 | 117 | 4.0 | 14.0 | 0.00 | 0.00 | 0.00 | 63 | 1012.3 |
| 20260505224755 | 65 | 179 | 4.0 | 14.0 | 0.00 | 0.00 | 0.00 | 63 | 1012.3 |
| 20260505224534 | 65 | 202 | 4.0 | 14.0 | 0.00 | 0.00 | 0.00 | 63 | 1012.4 |
| 20260505224434 | 65 | 237 | 4.0 | 14.0 | 0.00 | 0.00 | 0.00 | 63 | 1012.6 |
| 20260505224332 | 65 | 212 | 4.0 | 14.0 | 0.00 | 0.00 | 0.00 | 64 | 1012.6 |
| 20260505224232 | 65 | 202 | 4.0 | 14.0 | 0.00 | 0.00 | 0.00 | 64 | 1012.7 |
| 20260505224134 | 65 | 155 | 4.0 | 14.0 | 0.00 | 0.00 | 0.00 | 64 | 1012.7 |
| 20260505224033 | 65 | 189 | 5.0 | 19.0 | 0.00 | 0.00 | 0.00 | 63 | 1012.8 |
| 20260505224009 | 65 | 205 | 5.0 | 19.0 | 0.00 | 0.00 | 0.00 | 63 | 1013.0 |
| 20260505223958 | 65 | 123 | 5.0 | 19.0 | 0.00 | 0.00 | 0.00 | 64 | 1012.9 |
| 20260505223734 | 65 | 186 | 4.0 | 19.0 | 0.00 | 0.00 | 0.00 | 63 | 1013.1 |
| 20260505223632 | 65 | 176 | 4.0 | 19.0 | 0.00 | 0.00 | 0.00 | 63 | 1013.4 |
| 20260505223534 | 65 | 223 | 4.0 | 19.0 | 0.00 | 0.00 | 0.00 | 64 | 1013.4 |
| 20260505223434 | 65 | 213 | 4.0 | 19.0 | 0.00 | 0.00 | 0.00 | 64 | 1013.4 |
| 20260505223334 | 65 | 178 | 5.0 | 19.0 | 0.00 | 0.00 | 0.00 | 63 | 1013.5 |
| 20260505223233 | 65 | 208 | 5.0 | 19.0 | 0.00 | 0.00 | 0.00 | 63 | 1013.5 |
| 20260505223133 | 65 | 207 | 5.0 | 19.0 | 0.00 | 0.00 | 0.00 | 64 | 1013.6 |
| 20260505223028 | 65 | 210 | 4.0 | 15.0 | 0.00 | 0.00 | 0.00 | 64 | 1013.5 |
| 20260505223005 | 65 | 223 | 5.0 | 18.0 | 0.00 | 0.00 | 0.00 | 63 | 1013.5 |
| 20260505223000 | 65 | 190 | 5.0 | 18.0 | 0.00 | 0.00 | 0.00 | 62 | 1013.5 |
| 20260505222956 | 65 | 163 | 5.0 | 18.0 | 0.00 | 0.00 | 0.00 | 63 | 1013.5 |
| 20260505222942 | 65 | 209 | 5.0 | 15.0 | 0.00 | 0.00 | 0.00 | 63 | 1013.6 |
| 20260505222925 | 65 | 150 | 5.0 | 18.0 | 0.00 | 0.00 | 0.00 | 63 | 1013.6 |
| 20260505222421 | 65 | 244 | 5.0 | 18.0 | 0.00 | 0.00 | 0.00 | 63 | 1013.5 |
| 20260505222320 | 65 | 200 | 5.0 | 18.0 | 0.00 | 0.00 | 0.00 | 62 | 1013.1 |
| 20260505222222 | 65 | 113 | 4.0 | 18.0 | 0.00 | 0.00 | 0.00 | 63 | 1013.1 |
| 20260505222122 | 65 | 218 | 4.0 | 18.0 | 0.00 | 0.00 | 0.00 | 63 | 1013.1 |
| 20260505222047 | 65 | 219 | 4.0 | 18.0 | 0.00 | 0.00 | 0.00 | 62 | 1012.9 |
| 20260505222035 | 65 | 190 | 4.0 | 18.0 | 0.00 | 0.00 | 0.00 | 62 | 1013.0 |
| 20260505221816 | 65 | 187 | 4.0 | 15.0 | 0.00 | 0.00 | 0.00 | 63 | 1013.0 |
| 20260505221714 | 66 | 121 | 4.0 | 14.0 | 0.00 | 0.00 | 0.00 | 63 | 1013.0 |
| 20260505221612 | 66 | 232 | 4.0 | 14.0 | 0.00 | 0.00 | 0.00 | 62 | 1012.9 |
| 20260505221509 | 66 | 202 | 4.0 | 14.0 | 0.00 | 0.00 | 0.00 | 62 | 1012.8 |
| 20260505221404 | 66 | 182 | 4.0 | 14.0 | 0.00 | 0.00 | 0.00 | 62 | 1012.7 |
| 20260505221305 | 66 | 233 | 4.0 | 14.0 | 0.00 | 0.00 | 0.00 | 61 | 1012.6 |
| 20260505221206 | 66 | 209 | 5.0 | 19.0 | 0.00 | 0.00 | 0.00 | 61 | 1012.4 |
| 20260505221106 | 66 | 169 | 5.0 | 19.0 | 0.00 | 0.00 | 0.00 | 62 | 1012.4 |
| 20260505221005 | 66 | 190 | 5.0 | 19.0 | 0.00 | 0.00 | 0.00 | 62 | 1012.3 |
| 20260505220905 | 66 | 67 | 5.0 | 19.0 | 0.00 | 0.00 | 0.00 | 61 | 1012.4 |
| 20260505220806 | 66 | 157 | 5.0 | 19.0 | 0.00 | 0.00 | 0.00 | 61 | 1012.3 |
| 20260505220704 | 66 | 171 | 5.0 | 19.0 | 0.00 | 0.00 | 0.00 | 61 | 1012.4 |
| 20260505220639 | 66 | 170 | 5.0 | 19.0 | 0.00 | 0.00 | 0.00 | 60 | 1012.4 |
| 20260505220629 | 66 | 241 | 5.0 | 19.0 | 0.00 | 0.00 | 0.00 | 61 | 1012.5 |
| 20260505220436 | 66 | 202 | 5.0 | 19.0 | 0.00 | 0.00 | 0.00 | 61 | 1012.3 |
| 20260505220425 | 66 | 181 | 5.0 | 19.0 | 0.00 | 0.00 | 0.00 | 61 | 1012.3 |
| 20260505220204 | 66 | 203 | 4.0 | 15.0 | 0.00 | 0.00 | 0.00 | 60 | 1012.3 |
| 20260505220105 | 66 | 190 | 5.0 | 15.0 | 0.00 | 0.00 | 0.00 | 60 | 1012.2 |
| 20260505220004 | 66 | 147 | 5.0 | 15.0 | 0.00 | 0.00 | 0.00 | 59 | 1012.2 |
| 20260505215904 | 66 | 76 | 5.0 | 15.0 | 0.00 | 0.00 | 0.00 | 59 | 1012.2 |
| 20260505215759 | 66 | 181 | 5.0 | 15.0 | 0.00 | 0.00 | 0.00 | 59 | 1012.0 |
| 20260505215657 | 66 | 198 | 5.0 | 15.0 | 0.00 | 0.00 | 0.00 | 58 | 1012.0 |
| 20260505215558 | 66 | 219 | 5.0 | 15.0 | 0.00 | 0.00 | 0.00 | 59 | 1011.9 |
| 20260505215457 | 66 | 65 | 5.0 | 15.0 | 0.00 | 0.00 | 0.00 | 59 | 1011.8 |
| 20260505215359 | 67 | 165 | 4.0 | 15.0 | 0.00 | 0.00 | 0.00 | 58 | 1011.8 |
| 20260505215253 | 67 | 144 | 5.0 | 15.0 | 0.00 | 0.00 | 0.00 | 58 | 1011.7 |
| 20260505215154 | 67 | 185 | 5.0 | 15.0 | 0.00 | 0.00 | 0.00 | 58 | 1011.7 |
| 20260505215052 | 67 | 177 | 4.0 | 15.0 | 0.00 | 0.00 | 0.00 | 58 | 1011.7 |
| 20260505214953 | 67 | 198 | 4.0 | 14.0 | 0.00 | 0.00 | 0.00 | 58 | 1011.8 |
| 20260505214853 | 67 | 227 | 4.0 | 14.0 | 0.00 | 0.00 | 0.00 | 57 | 1011.5 |
| 20260505214754 | 67 | 151 | 4.0 | 14.0 | 0.00 | 0.00 | 0.00 | 57 | 1011.8 |
| 20260505214724 | 67 | 61 | 5.0 | 18.0 | 0.00 | 0.00 | 0.00 | 57 | 1011.8 |
| 20260505214715 | 67 | 156 | 5.0 | 14.0 | 0.00 | 0.00 | 0.00 | 57 | 1011.7 |
| 20260505214452 | 67 | 241 | 5.0 | 19.0 | 0.00 | 0.00 | 0.00 | 57 | 1011.8 |
| 20260505214403 | 67 | 183 | 5.0 | 19.0 | 0.00 | 0.00 | 0.00 | 57 | 1011.8 |
| 20260505214352 | 67 | 71 | 5.0 | 19.0 | 0.00 | 0.00 | 0.00 | 58 | 1011.7 |
| 20260505214346 | 67 | 74 | 5.0 | 19.0 | 0.00 | 0.00 | 0.00 | 57 | 1011.7 |
| 20260505214326 | 67 | 162 | 5.0 | 19.0 | 0.00 | 0.00 | 0.00 | 57 | 1011.8 |
| 20260505213947 | 68 | 203 | 5.0 | 19.0 | 0.00 | 0.00 | 0.00 | 56 | 1011.8 |
| 20260505213849 | 68 | 98 | 5.0 | 19.0 | 0.00 | 0.00 | 0.00 | 55 | 1011.9 |
| 20260505213746 | 68 | 198 | 4.0 | 19.0 | 0.00 | 0.00 | 0.00 | 56 | 1011.9 |
| 20260505213649 | 68 | 211 | 4.0 | 19.0 | 0.00 | 0.00 | 0.00 | 56 | 1012.0 |
| 20260505213542 | 68 | 198 | 4.0 | 17.0 | 0.00 | 0.00 | 0.00 | 56 | 1012.0 |
| 20260505213441 | 68 | 195 | 4.0 | 12.0 | 0.00 | 0.00 | 0.00 | 58 | 1012.0 |
| 20260505213339 | 68 | 144 | 4.0 | 12.0 | 0.00 | 0.00 | 0.00 | 58 | 1012.0 |
| 20260505213240 | 68 | 237 | 4.0 | 19.0 | 0.00 | 0.00 | 0.00 | 58 | 1012.0 |
| 20260505213205 | 68 | 188 | 5.0 | 19.0 | 0.00 | 0.00 | 0.00 | 57 | 1012.1 |
| 20260505213156 | 68 | 169 | 4.0 | 19.0 | 0.00 | 0.00 | 0.00 | 58 | 1012.0 |
| 20260505212934 | 68 | 222 | 5.0 | 19.0 | 0.00 | 0.00 | 0.00 | 57 | 1012.2 |
| 20260505212905 | 68 | 260 | 5.0 | 20.0 | 0.00 | 0.00 | 0.00 | 56 | 1012.1 |
| 20260505212854 | 68 | 227 | 5.0 | 19.0 | 0.00 | 0.00 | 0.00 | 55 | 1012.1 |
| 20260505212645 | 68 | 194 | 5.0 | 20.0 | 0.00 | 0.00 | 0.00 | 55 | 1012.2 |
| 20260505212634 | 68 | 194 | 5.0 | 20.0 | 0.00 | 0.00 | 0.00 | 55 | 1012.1 |
| 20260505212609 | 68 | 184 | 5.0 | 20.0 | 0.00 | 0.00 | 0.00 | 54 | 1012.2 |
| 20260505212447 | 68 | 210 | 5.0 | 20.0 | 0.00 | 0.00 | 0.00 | 55 | 1012.1 |
| 20260505212227 | 68 | 193 | 5.0 | 20.0 | 0.00 | 0.00 | 0.00 | 55 | 1012.1 |
| 20260505212125 | 68 | 239 | 5.0 | 21.0 | 0.00 | 0.00 | 0.00 | 55 | 1012.1 |
| 20260505212021 | 68 | 169 | 5.0 | 21.0 | 0.00 | 0.00 | 0.00 | 56 | 1012.1 |
| 20260505211923 | 68 | 182 | 5.0 | 21.0 | 0.00 | 0.00 | 0.00 | 56 | 1012.1 |
| 20260505211821 | 68 | 198 | 5.0 | 23.0 | 0.00 | 0.00 | 0.00 | 57 | 1012.1 |
| 20260505211722 | 68 | 193 | 5.0 | 23.0 | 0.00 | 0.00 | 0.00 | 57 | 1012.2 |
| 20260505211621 | 68 | 214 | 6.0 | 23.0 | 0.00 | 0.00 | 0.00 | 55 | 1012.1 |
| 20260505211544 | 68 | 188 | 6.0 | 23.0 | 0.00 | 0.00 | 0.00 | 56 | 1012.1 |
| 20260505211531 | 68 | 202 | 6.0 | 23.0 | 0.00 | 0.00 | 0.00 | 55 | 1012.1 |
| 20260505211310 | 68 | 228 | 6.0 | 23.0 | 0.00 | 0.00 | 0.00 | 56 | 1012.1 |
| 20260505211209 | 68 | 246 | 6.0 | 23.0 | 0.00 | 0.00 | 0.00 | 56 | 1012.0 |
| 20260505211110 | 69 | 193 | 6.0 | 23.0 | 0.00 | 0.00 | 0.00 | 56 | 1012.1 |
| 20260505211006 | 69 | 193 | 6.0 | 23.0 | 0.00 | 0.00 | 0.00 | 57 | 1012.0 |
| 20260505210903 | 69 | 304 | 6.0 | 21.0 | 0.00 | 0.00 | 0.00 | 56 | 1011.9 |
| 20260505210803 | 69 | 142 | 6.0 | 21.0 | 0.00 | 0.00 | 0.00 | 56 | 1011.9 |
| 20260505210702 | 69 | 221 | 6.0 | 21.0 | 0.00 | 0.00 | 0.00 | 56 | 1011.8 |
| 20260505210604 | 69 | 174 | 6.0 | 24.0 | 0.00 | 0.00 | 0.00 | 56 | 1011.9 |
| 20260505210501 | 69 | 202 | 6.0 | 24.0 | 0.00 | 0.00 | 0.00 | 56 | 1011.9 |
| 20260505210356 | 69 | 219 | 6.0 | 24.0 | 0.00 | 0.00 | 0.00 | 56 | 1011.9 |
| 20260505210258 | 69 | 218 | 6.0 | 24.0 | 0.00 | 0.00 | 0.00 | 56 | 1012.0 |
| 20260505210156 | 69 | 178 | 7.0 | 24.0 | 0.00 | 0.00 | 0.00 | 56 | 1012.0 |
| 20260505210059 | 69 | 142 | 7.0 | 24.0 | 0.00 | 0.00 | 0.00 | 56 | 1012.1 |
| 20260505205946 | 68 | 212 | 6.0 | 24.0 | 0.00 | 0.00 | 0.00 | 57 | 1012.1 |
| 20260505205844 | 68 | 201 | 6.0 | 24.0 | 0.00 | 0.00 | 0.00 | 56 | 1012.1 |
| 20260505205744 | 68 | 159 | 6.0 | 24.0 | 0.00 | 0.00 | 0.00 | 55 | 1012.1 |
| 20260505205643 | 68 | 198 | 6.0 | 24.0 | 0.00 | 0.00 | 0.00 | 55 | 1012.2 |
| 20260505205544 | 68 | 163 | 6.0 | 19.0 | 0.00 | 0.00 | 0.00 | 56 | 1012.1 |
| 20260505205438 | 69 | 156 | 5.0 | 19.0 | 0.00 | 0.00 | 0.00 | 56 | 1012.0 |
| 20260505205337 | 69 | 192 | 5.0 | 19.0 | 0.00 | 0.00 | 0.00 | 56 | 1012.0 |
| 20260505205237 | 69 | 188 | 5.0 | 19.0 | 0.00 | 0.00 | 0.00 | 56 | 1012.0 |
| 20260505205138 | 69 | 171 | 5.0 | 19.0 | 0.00 | 0.00 | 0.00 | 55 | 1012.1 |
| 20260505205038 | 69 | 165 | 5.0 | 19.0 | 0.00 | 0.00 | 0.00 | 54 | 1012.0 |
| 20260505204933 | 69 | 0 | 4.0 | 19.0 | 0.00 | 0.00 | 0.00 | 54 | 1012.1 |
| 20260505204830 | 69 | 107 | 4.0 | 19.0 | 0.00 | 0.00 | 0.00 | 56 | 1011.9 |
| 20260505204728 | 69 | 248 | 4.0 | 19.0 | 0.00 | 0.00 | 0.00 | 56 | 1012.0 |
| 20260505204629 | 70 | 186 | 4.0 | 19.0 | 0.00 | 0.00 | 0.00 | 58 | 1012.0 |
| 20260505204529 | 70 | 178 | 4.0 | 13.0 | 0.00 | 0.00 | 0.00 | 58 | 1012.1 |
| 20260505204420 | 70 | 184 | 3.0 | 13.0 | 0.00 | 0.00 | 0.00 | 57 | 1012.0 |
| 20260505204319 | 70 | 211 | 3.0 | 13.0 | 0.00 | 0.00 | 0.00 | 58 | 1012.1 |
| 20260505204220 | 70 | 162 | 3.0 | 13.0 | 0.00 | 0.00 | 0.00 | 59 | 1012.1 |
| 20260505204121 | 70 | 107 | 3.0 | 13.0 | 0.00 | 0.00 | 0.00 | 58 | 1012.2 |
| 20260505204047 | 69 | 153 | 4.0 | 13.0 | 0.00 | 0.00 | 0.00 | 58 | 1012.2 |
| 20260505204037 | 70 | 161 | 3.0 | 13.0 | 0.00 | 0.00 | 0.00 | 59 | 1012.2 |
| 20260505203813 | 69 | 117 | 4.0 | 14.0 | 0.00 | 0.00 | 0.00 | 57 | 1012.2 |
| 20260505203713 | 69 | 216 | 4.0 | 14.0 | 0.00 | 0.00 | 0.00 | 58 | 1012.6 |
| 20260505203649 | 69 | 170 | 4.0 | 16.0 | 0.00 | 0.00 | 0.00 | 57 | 1012.1 |
| 20260505203638 | 69 | 163 | 4.0 | 14.0 | 0.00 | 0.00 | 0.00 | 58 | 1012.1 |
| 20260505203410 | 69 | 176 | 4.0 | 16.0 | 0.00 | 0.00 | 0.00 | 57 | 1012.0 |
| 20260505203306 | 69 | 240 | 4.0 | 16.0 | 0.00 | 0.00 | 0.00 | 59 | 1012.0 |
| 20260505203207 | 69 | 190 | 4.0 | 16.0 | 0.00 | 0.00 | 0.00 | 58 | 1012.0 |
| 20260505203106 | 69 | 211 | 4.0 | 16.0 | 0.00 | 0.00 | 0.00 | 57 | 1012.0 |
| 20260505203006 | 68 | 235 | 4.0 | 16.0 | 0.00 | 0.00 | 0.00 | 58 | 1012.0 |
| 20260505202852 | 68 | 140 | 4.0 | 16.0 | 0.00 | 0.00 | 0.00 | 58 | 1012.1 |
| 20260505202753 | 68 | 198 | 4.0 | 16.0 | 0.00 | 0.00 | 0.00 | 59 | 1012.1 |
| 20260505202724 | 68 | 200 | 4.0 | 16.0 | 0.00 | 0.00 | 0.00 | 59 | 1012.2 |
| 20260505202713 | 68 | 202 | 4.0 | 16.0 | 0.00 | 0.00 | 0.00 | 59 | 1012.1 |
| 20260505202452 | 68 | 119 | 4.0 | 16.0 | 0.00 | 0.00 | 0.00 | 59 | 1012.3 |
| 20260505202352 | 68 | 101 | 4.0 | 16.0 | 0.00 | 0.00 | 0.00 | 59 | 1012.2 |
| 20260505202253 | 68 | 151 | 4.0 | 12.0 | 0.00 | 0.00 | 0.00 | 59 | 1012.4 |
| 20260505202152 | 69 | 148 | 4.0 | 13.0 | 0.00 | 0.00 | 0.00 | 59 | 1012.4 |
| 20260505202130 | 69 | 204 | 4.0 | 13.0 | 0.00 | 0.00 | 0.00 | 59 | 1012.4 |
| 20260505202116 | 69 | 167 | 4.0 | 13.0 | 0.00 | 0.00 | 0.00 | 60 | 1012.4 |
| 20260505201852 | 69 | 177 | 4.0 | 13.0 | 0.00 | 0.00 | 0.00 | 60 | 1012.4 |
| 20260505201753 | 69 | 187 | 4.0 | 13.0 | 0.00 | 0.00 | 0.00 | 58 | 1012.4 |
| 20260505201652 | 69 | 141 | 4.0 | 13.0 | 0.00 | 0.00 | 0.00 | 58 | 1012.5 |
| 20260505201554 | 69 | 223 | 4.0 | 13.0 | 0.00 | 0.00 | 0.00 | 58 | 1012.4 |
| 20260505201452 | 69 | 190 | 4.0 | 18.0 | 0.00 | 0.00 | 0.00 | 57 | 1012.5 |
| 20260505201352 | 69 | 194 | 5.0 | 18.0 | 0.00 | 0.00 | 0.00 | 59 | 1012.5 |
| 20260505201253 | 69 | 175 | 5.0 | 18.0 | 0.00 | 0.00 | 0.00 | 58 | 1012.6 |
| 20260505201152 | 69 | 167 | 5.0 | 18.0 | 0.00 | 0.00 | 0.00 | 60 | 1012.6 |
| 20260505201052 | 68 | 234 | 5.0 | 18.0 | 0.00 | 0.00 | 0.00 | 61 | 1012.5 |
| 20260505200953 | 68 | 263 | 5.0 | 18.0 | 0.00 | 0.00 | 0.00 | 59 | 1012.4 |
| 20260505200854 | 68 | 216 | 5.0 | 18.0 | 0.00 | 0.00 | 0.00 | 62 | 1012.6 |
| 20260505200822 | 67 | 196 | 5.0 | 17.0 | 0.00 | 0.00 | 0.00 | 61 | 1012.8 |
| 20260505200811 | 68 | 199 | 5.0 | 18.0 | 0.00 | 0.00 | 0.00 | 60 | 1012.5 |
| 20260505200747 | 68 | 221 | 5.0 | 18.0 | 0.00 | 0.00 | 0.00 | 59 | 1012.5 |
| 20260505200633 | 67 | 189 | 5.0 | 17.0 | 0.00 | 0.00 | 0.00 | 61 | 1012.7 |
| 20260505200627 | 67 | 189 | 5.0 | 17.0 | 0.00 | 0.00 | 0.00 | 62 | 1012.6 |
| 20260505200622 | 67 | 94 | 5.0 | 17.0 | 0.00 | 0.00 | 0.00 | 63 | 1012.6 |
| 20260505200608 | 67 | 116 | 5.0 | 18.0 | 0.00 | 0.00 | 0.00 | 59 | 1012.5 |
| 20260505200551 | 67 | 207 | 5.0 | 15.0 | 0.00 | 0.00 | 0.00 | 60 | 1012.7 |
| 20260505200132 | 67 | 171 | 5.0 | 17.0 | 0.00 | 0.00 | 0.00 | 63 | 1012.7 |
| 20260505200008 | 67 | 179 | 5.0 | 17.0 | 0.00 | 0.00 | 0.00 | 62 | 1012.7 |
| 20260505195750 | 67 | 179 | 4.0 | 17.0 | 0.00 | 0.00 | 0.00 | 61 | 1012.8 |
| 20260505195650 | 67 | 166 | 4.0 | 17.0 | 0.00 | 0.00 | 0.00 | 61 | 1012.8 |
| 20260505195545 | 67 | 223 | 4.0 | 17.0 | 0.00 | 0.00 | 0.00 | 62 | 1012.8 |
| 20260505195445 | 67 | 217 | 4.0 | 17.0 | 0.00 | 0.00 | 0.00 | 62 | 1012.9 |
| 20260505195345 | 67 | 147 | 4.0 | 12.0 | 0.00 | 0.00 | 0.00 | 62 | 1012.9 |
| 20260505195317 | 67 | 121 | 4.0 | 12.0 | 0.00 | 0.00 | 0.00 | 65 | 1012.9 |
| 20260505195307 | 67 | 223 | 4.0 | 12.0 | 0.00 | 0.00 | 0.00 | 64 | 1012.9 |
| 20260505195118 | 67 | 261 | 4.0 | 12.0 | 0.00 | 0.00 | 0.00 | 64 | 1012.9 |
| 20260505195106 | 67 | 227 | 4.0 | 12.0 | 0.00 | 0.00 | 0.00 | 64 | 1012.9 |
| 20260505194844 | 67 | 198 | 4.0 | 12.0 | 0.00 | 0.00 | 0.00 | 66 | 1013.0 |
| 20260505194745 | 67 | 197 | 4.0 | 12.0 | 0.00 | 0.00 | 0.00 | 65 | 1013.0 |
| 20260505194646 | 67 | 197 | 4.0 | 12.0 | 0.00 | 0.00 | 0.00 | 63 | 1012.9 |
| 20260505194546 | 66 | 190 | 3.0 | 10.0 | 0.00 | 0.00 | 0.00 | 63 | 1013.0 |
| 20260505194444 | 66 | 183 | 3.0 | 10.0 | 0.00 | 0.00 | 0.00 | 63 | 1013.0 |
| 20260505194346 | 66 | 174 | 3.0 | 10.0 | 0.00 | 0.00 | 0.00 | 64 | 1013.1 |
| 20260505194247 | 66 | 192 | 3.0 | 10.0 | 0.00 | 0.00 | 0.00 | 64 | 1013.2 |
| 20260505194222 | 66 | 242 | 3.0 | 9.0 | 0.00 | 0.00 | 0.00 | 65 | 1013.1 |
| 20260505194208 | 66 | 216 | 3.0 | 9.0 | 0.00 | 0.00 | 0.00 | 65 | 1013.1 |
| 20260505194004 | 66 | 218 | 3.0 | 8.0 | 0.00 | 0.00 | 0.00 | 64 | 1013.2 |
| 20260505193959 | 66 | 238 | 3.0 | 8.0 | 0.00 | 0.00 | 0.00 | 66 | 1013.4 |
| 20260505193948 | 66 | 190 | 3.0 | 9.0 | 0.00 | 0.00 | 0.00 | 65 | 1013.2 |
| 20260505193926 | 66 | 195 | 3.0 | 8.0 | 0.00 | 0.00 | 0.00 | 64 | 1013.2 |
| 20260505193621 | 66 | 208 | 3.0 | 9.0 | 0.00 | 0.00 | 0.00 | 65 | 1013.4 |
| 20260505193609 | 66 | 153 | 3.0 | 8.0 | 0.00 | 0.00 | 0.00 | 65 | 1013.2 |
| 20260505193345 | 66 | 186 | 3.0 | 9.0 | 0.00 | 0.00 | 0.00 | 66 | 1013.4 |
| 20260505193246 | 66 | 135 | 3.0 | 13.0 | 0.00 | 0.00 | 0.00 | 65 | 1013.4 |
| 20260505193145 | 66 | 194 | 4.0 | 15.0 | 0.00 | 0.00 | 0.00 | 65 | 1013.4 |
| 20260505193049 | 66 | 157 | 4.0 | 15.0 | 0.00 | 0.00 | 0.00 | 63 | 1013.4 |
| 20260505192941 | 66 | 162 | 4.0 | 15.0 | 0.00 | 0.00 | 0.00 | 63 | 1013.5 |
| 20260505192908 | 66 | 218 | 4.0 | 15.0 | 0.00 | 0.00 | 0.00 | 61 | 1013.5 |
| 20260505192900 | 66 | 165 | 4.0 | 15.0 | 0.00 | 0.00 | 0.00 | 62 | 1013.6 |
| 20260505192719 | 65 | 200 | 4.0 | 13.0 | 0.00 | 0.00 | 0.00 | 63 | 1013.5 |
| 20260505192711 | 65 | 192 | 4.0 | 15.0 | 0.00 | 0.00 | 0.00 | 63 | 1013.5 |
| 20260505192706 | 65 | 215 | 4.0 | 13.0 | 0.00 | 0.00 | 0.00 | 63 | 1013.6 |
| 20260505192657 | 66 | 190 | 4.0 | 15.0 | 0.00 | 0.00 | 0.00 | 61 | 1013.5 |
| 20260505192636 | 66 | 173 | 4.0 | 15.0 | 0.00 | 0.00 | 0.00 | 62 | 1013.6 |
| 20260505192510 | 65 | 209 | 4.0 | 15.0 | 0.00 | 0.00 | 0.00 | 61 | 1013.5 |
| 20260505192453 | 65 | 150 | 4.0 | 15.0 | 0.00 | 0.00 | 0.00 | 62 | 1013.5 |
| 20260505192007 | 65 | 211 | 4.0 | 13.0 | 0.00 | 0.00 | 0.00 | 64 | 1013.1 |
| 20260505191957 | 65 | 215 | 4.0 | 13.0 | 0.00 | 0.00 | 0.00 | 62 | 1013.4 |
| 20260505191735 | 65 | 161 | 4.0 | 13.0 | 0.00 | 0.00 | 0.00 | 63 | 1013.1 |
| 20260505191635 | 64 | 221 | 4.0 | 15.0 | 0.00 | 0.00 | 0.00 | 65 | 1012.9 |
| 20260505191534 | 64 | 181 | 4.0 | 15.0 | 0.00 | 0.00 | 0.00 | 64 | 1012.9 |
| 20260505191434 | 64 | 107 | 4.0 | 15.0 | 0.00 | 0.00 | 0.00 | 64 | 1012.8 |
| 20260505191405 | 64 | 177 | 4.0 | 15.0 | 0.00 | 0.00 | 0.00 | 64 | 1012.9 |
| 20260505191234 | 64 | 171 | 4.0 | 15.0 | 0.00 | 0.00 | 0.00 | 64 | 1012.9 |
| 20260505191204 | 64 | 183 | 4.0 | 15.0 | 0.00 | 0.00 | 0.00 | 64 | 1012.8 |
| 20260505191154 | 64 | 180 | 4.0 | 15.0 | 0.00 | 0.00 | 0.00 | 64 | 1012.8 |
| 20260505190930 | 64 | 169 | 4.0 | 15.0 | 0.00 | 0.00 | 0.00 | 66 | 1012.7 |
| 20260505190826 | 64 | 184 | 4.0 | 15.0 | 0.00 | 0.00 | 0.00 | 67 | 1012.9 |
| 20260505190727 | 64 | 192 | 4.0 | 15.0 | 0.00 | 0.00 | 0.00 | 67 | 1013.0 |
| 20260505190627 | 64 | 250 | 4.0 | 14.0 | 0.00 | 0.00 | 0.00 | 67 | 1013.0 |
| 20260505190524 | 64 | 240 | 4.0 | 13.0 | 0.00 | 0.00 | 0.00 | 67 | 1013.1 |
| 20260505190429 | 64 | 201 | 4.0 | 19.0 | 0.00 | 0.00 | 0.00 | 67 | 1013.2 |
| 20260505190326 | 64 | 184 | 4.0 | 19.0 | 0.00 | 0.00 | 0.00 | 68 | 1013.2 |
| 20260505190224 | 64 | 205 | 4.0 | 19.0 | 0.00 | 0.00 | 0.00 | 67 | 1013.4 |
| 20260505190126 | 64 | 172 | 4.0 | 19.0 | 0.00 | 0.00 | 0.00 | 67 | 1013.4 |
| 20260505190050 | 64 | 198 | 4.0 | 19.0 | 0.00 | 0.00 | 0.00 | 67 | 1013.5 |
| 20260505185825 | 64 | 142 | 4.0 | 19.0 | 0.00 | 0.00 | 0.00 | 67 | 1013.5 |
| 20260505185724 | 64 | 244 | 4.0 | 19.0 | 0.00 | 0.00 | 0.00 | 67 | 1013.6 |
| 20260505185625 | 64 | 142 | 4.0 | 19.0 | 0.00 | 0.00 | 0.00 | 68 | 1013.5 |
| 20260505185524 | 64 | 190 | 4.0 | 19.0 | 0.00 | 0.00 | 0.00 | 67 | 1013.6 |
| 20260505185426 | 64 | 153 | 5.0 | 16.0 | 0.00 | 0.00 | 0.00 | 67 | 1013.7 |
| 20260505185324 | 64 | 188 | 5.0 | 20.0 | 0.00 | 0.00 | 0.00 | 67 | 1013.7 |
| 20260505185225 | 64 | 137 | 5.0 | 20.0 | 0.00 | 0.00 | 0.00 | 67 | 1013.9 |
| 20260505185124 | 64 | 163 | 5.0 | 20.0 | 0.00 | 0.00 | 0.00 | 67 | 1013.9 |
| 20260505185027 | 64 | 223 | 5.0 | 20.0 | 0.00 | 0.00 | 0.00 | 68 | 1013.8 |
| 20260505184922 | 64 | 244 | 5.0 | 20.0 | 0.00 | 0.00 | 0.00 | 68 | 1013.9 |
| 20260505184825 | 64 | 179 | 5.0 | 20.0 | 0.00 | 0.00 | 0.00 | 68 | 1013.9 |
| 20260505184818 | 64 | 215 | 5.0 | 20.0 | 0.00 | 0.00 | 0.00 | 67 | 1014.1 |
| 20260505184813 | 64 | 180 | 5.0 | 20.0 | 0.00 | 0.00 | 0.00 | 68 | 1014.1 |
| 20260505184807 | 64 | 178 | 4.0 | 18.0 | 0.00 | 0.00 | 0.00 | 68 | 1014.2 |
| 20260505184748 | 64 | 182 | 5.0 | 20.0 | 0.00 | 0.00 | 0.00 | 68 | 1013.9 |
| 20260505184727 | 64 | 192 | 5.0 | 20.0 | 0.00 | 0.00 | 0.00 | 67 | 1014.1 |
| 20260505184220 | 64 | 115 | 5.0 | 18.0 | 0.00 | 0.00 | 0.00 | 69 | 1014.3 |
| 20260505184115 | 64 | 188 | 4.0 | 18.0 | 0.00 | 0.00 | 0.00 | 71 | 1014.3 |
| 20260505184014 | 64 | 148 | 4.0 | 18.0 | 0.00 | 0.00 | 0.00 | 70 | 1014.2 |
| 20260505183915 | 64 | 162 | 4.0 | 13.0 | 0.00 | 0.00 | 0.00 | 70 | 1014.2 |
| 20260505183815 | 64 | 201 | 4.0 | 13.0 | 0.00 | 0.00 | 0.00 | 70 | 1014.2 |
| 20260505183714 | 64 | 209 | 4.0 | 13.0 | 0.00 | 0.00 | 0.00 | 70 | 1014.3 |
| 20260505183647 | 64 | 234 | 4.0 | 13.0 | 0.00 | 0.00 | 0.00 | 69 | 1014.3 |
| 20260505183634 | 64 | 194 | 3.0 | 13.0 | 0.00 | 0.00 | 0.00 | 69 | 1014.2 |
| 20260505183410 | 64 | 200 | 4.0 | 13.0 | 0.00 | 0.00 | 0.00 | 70 | 1014.2 |
| 20260505183312 | 64 | 175 | 4.0 | 13.0 | 0.00 | 0.00 | 0.00 | 70 | 1014.3 |
| 20260505183209 | 64 | 167 | 3.0 | 13.0 | 0.00 | 0.00 | 0.00 | 68 | 1014.2 |
| 20260505183110 | 64 | 206 | 4.0 | 13.0 | 0.00 | 0.00 | 0.00 | 70 | 1014.2 |
| 20260505183012 | 64 | 166 | 3.0 | 13.0 | 0.00 | 0.00 | 0.00 | 71 | 1014.2 |
| 20260505182943 | 64 | 140 | 3.0 | 13.0 | 0.00 | 0.00 | 0.00 | 68 | 1014.3 |
| 20260505182932 | 64 | 189 | 3.0 | 13.0 | 0.00 | 0.00 | 0.00 | 70 | 1014.2 |
| 20260505182717 | 64 | 196 | 3.0 | 13.0 | 0.00 | 0.00 | 0.00 | 70 | 1014.3 |
| 20260505182643 | 64 | 216 | 3.0 | 13.0 | 0.00 | 0.00 | 0.00 | 71 | 1014.3 |
| 20260505182633 | 64 | 195 | 4.0 | 13.0 | 0.00 | 0.00 | 0.00 | 70 | 1014.3 |
| 20260505182407 | 64 | 184 | 3.0 | 11.0 | 0.00 | 0.00 | 0.00 | 70 | 1014.2 |
| 20260505182306 | 64 | 211 | 3.0 | 10.0 | 0.00 | 0.00 | 0.00 | 71 | 1014.1 |
| 20260505182203 | 64 | 252 | 3.0 | 9.0 | 0.00 | 0.00 | 0.00 | 71 | 1014.1 |
| 20260505182102 | 64 | 237 | 3.0 | 9.0 | 0.00 | 0.00 | 0.00 | 71 | 1014.2 |
| 20260505182003 | 63 | 209 | 3.0 | 9.0 | 0.00 | 0.00 | 0.00 | 71 | 1014.2 |
| 20260505181940 | 63 | 216 | 4.0 | 11.0 | 0.00 | 0.00 | 0.00 | 71 | 1014.1 |
| 20260505181934 | 63 | 211 | 4.0 | 12.0 | 0.00 | 0.00 | 0.00 | 71 | 1014.1 |
| 20260505181930 | 63 | 180 | 4.0 | 12.0 | 0.00 | 0.00 | 0.00 | 70 | 1014.2 |
| 20260505181919 | 63 | 190 | 3.0 | 9.0 | 0.00 | 0.00 | 0.00 | 71 | 1014.2 |
| 20260505181736 | 63 | 136 | 4.0 | 11.0 | 0.00 | 0.00 | 0.00 | 71 | 1014.1 |
| 20260505181353 | 63 | 202 | 4.0 | 12.0 | 0.00 | 0.00 | 0.00 | 70 | 1014.2 |
| 20260505181250 | 63 | 205 | 4.0 | 12.0 | 0.00 | 0.00 | 0.00 | 70 | 1014.2 |
| 20260505181149 | 63 | 249 | 4.0 | 12.0 | 0.00 | 0.00 | 0.00 | 71 | 1014.2 |
| 20260505181120 | 63 | 202 | 4.0 | 12.0 | 0.00 | 0.00 | 0.00 | 71 | 1014.2 |
| 20260505181109 | 63 | 219 | 4.0 | 12.0 | 0.00 | 0.00 | 0.00 | 71 | 1014.2 |
| 20260505180848 | 63 | 220 | 3.0 | 12.0 | 0.00 | 0.00 | 0.00 | 71 | 1014.3 |
| 20260505180749 | 63 | 237 | 3.0 | 12.0 | 0.00 | 0.00 | 0.00 | 71 | 1014.4 |
| 20260505180647 | 63 | 173 | 3.0 | 12.0 | 0.00 | 0.00 | 0.00 | 71 | 1014.4 |
| 20260505180548 | 63 | 205 | 3.0 | 11.0 | 0.00 | 0.00 | 0.00 | 71 | 1014.5 |
| 20260505180540 | 63 | 175 | 3.0 | 13.0 | 0.00 | 0.00 | 0.00 | 69 | 1014.7 |
| 20260505180534 | 63 | 172 | 3.0 | 13.0 | 0.00 | 0.00 | 0.00 | 70 | 1014.8 |
| 20260505180528 | 63 | 188 | 4.0 | 13.0 | 0.00 | 0.00 | 0.00 | 70 | 1014.6 |
| 20260505180514 | 63 | 175 | 4.0 | 11.0 | 0.00 | 0.00 | 0.00 | 70 | 1014.5 |
| 20260505180328 | 63 | 203 | 4.0 | 13.0 | 0.00 | 0.00 | 0.00 | 70 | 1014.6 |
| 20260505180209 | 63 | 205 | 3.0 | 13.0 | 0.00 | 0.00 | 0.00 | 70 | 1014.8 |
| 20260505180158 | 63 | 101 | 3.0 | 13.0 | 0.00 | 0.00 | 0.00 | 70 | 1014.7 |
| 20260505180134 | 63 | 189 | 3.0 | 13.0 | 0.00 | 0.00 | 0.00 | 69 | 1014.7 |
| 20260505175954 | 63 | 210 | 3.0 | 13.0 | 0.00 | 0.00 | 0.00 | 69 | 1014.8 |
| 20260505175823 | 63 | 213 | 3.0 | 13.0 | 0.00 | 0.00 | 0.00 | 71 | 1014.8 |
| 20260505175441 | 63 | 182 | 3.0 | 13.0 | 0.00 | 0.00 | 0.00 | 71 | 1014.8 |
| 20260505175339 | 63 | 143 | 3.0 | 9.0 | 0.00 | 0.00 | 0.00 | 72 | 1014.8 |
| 20260505175307 | 63 | 200 | 3.0 | 9.0 | 0.00 | 0.00 | 0.00 | 72 | 1015.0 |
| 20260505175257 | 63 | 107 | 2.0 | 9.0 | 0.00 | 0.00 | 0.00 | 73 | 1014.8 |
| 20260505175034 | 63 | 199 | 3.0 | 9.0 | 0.00 | 0.00 | 0.00 | 72 | 1015.1 |
| 20260505174934 | 63 | 198 | 3.0 | 9.0 | 0.00 | 0.00 | 0.00 | 73 | 1015.1 |
| 20260505174834 | 63 | 184 | 3.0 | 9.0 | 0.00 | 0.00 | 0.00 | 73 | 1015.1 |
| 20260505174759 | 63 | 166 | 3.0 | 9.0 | 0.00 | 0.00 | 0.00 | 72 | 1015.0 |
| 20260505174750 | 63 | 174 | 3.0 | 9.0 | 0.00 | 0.00 | 0.00 | 73 | 1015.0 |
| 20260505174534 | 63 | 187 | 3.0 | 9.0 | 0.00 | 0.00 | 0.00 | 73 | 1015.0 |
| 20260505174426 | 63 | 212 | 2.0 | 9.0 | 0.00 | 0.00 | 0.00 | 73 | 1015.0 |
| 20260505174326 | 63 | 193 | 3.0 | 9.0 | 0.00 | 0.00 | 0.00 | 73 | 1015.0 |
| 20260505174226 | 63 | 192 | 3.0 | 10.0 | 0.00 | 0.00 | 0.00 | 72 | 1015.0 |
| 20260505174120 | 63 | 211 | 3.0 | 10.0 | 0.00 | 0.00 | 0.00 | 72 | 1015.1 |
| 20260505174018 | 63 | 209 | 3.0 | 10.0 | 0.00 | 0.00 | 0.00 | 73 | 1015.1 |
| 20260505173918 | 63 | 196 | 3.0 | 10.0 | 0.00 | 0.00 | 0.00 | 73 | 1015.2 |
| 20260505173850 | 63 | 123 | 3.0 | 12.0 | 0.00 | 0.00 | 0.00 | 73 | 1015.2 |
| 20260505173839 | 63 | 192 | 3.0 | 10.0 | 0.00 | 0.00 | 0.00 | 73 | 1015.2 |
| 20260505173614 | 63 | 184 | 3.0 | 12.0 | 0.00 | 0.00 | 0.00 | 72 | 1015.3 |
| 20260505173515 | 63 | 163 | 4.0 | 12.0 | 0.00 | 0.00 | 0.00 | 72 | 1015.3 |
| 20260505173413 | 63 | 175 | 4.0 | 12.0 | 0.00 | 0.00 | 0.00 | 72 | 1015.3 |
| 20260505173342 | 63 | 221 | 4.0 | 12.0 | 0.00 | 0.00 | 0.00 | 71 | 1015.4 |
| 20260505173332 | 63 | 186 | 4.0 | 12.0 | 0.00 | 0.00 | 0.00 | 71 | 1015.3 |
| 20260505173140 | 63 | 195 | 4.0 | 12.0 | 0.00 | 0.00 | 0.00 | 70 | 1015.3 |
| 20260505173129 | 63 | 211 | 4.0 | 12.0 | 0.00 | 0.00 | 0.00 | 70 | 1015.3 |
| 20260505172906 | 63 | 190 | 4.0 | 12.0 | 0.00 | 0.00 | 0.00 | 71 | 1015.3 |
| 20260505172807 | 63 | 173 | 3.0 | 16.0 | 0.00 | 0.00 | 0.00 | 71 | 1015.3 |
| 20260505172706 | 63 | 206 | 4.0 | 16.0 | 0.00 | 0.00 | 0.00 | 71 | 1015.4 |
| 20260505172551 | 63 | 176 | 4.0 | 16.0 | 0.00 | 0.00 | 0.00 | 70 | 1015.3 |
| 20260505172507 | 64 | 246 | 4.0 | 16.0 | 0.00 | 0.00 | 0.00 | 72 | 1015.4 |
| 20260505172503 | 63 | 93 | 4.0 | 16.0 | 0.00 | 0.00 | 0.00 | 71 | 1015.5 |
| 20260505172453 | 63 | 229 | 4.0 | 16.0 | 0.00 | 0.00 | 0.00 | 71 | 1015.4 |
| 20260505172431 | 63 | 219 | 4.0 | 16.0 | 0.00 | 0.00 | 0.00 | 71 | 1015.4 |
| 20260505172116 | 63 | 219 | 5.0 | 16.0 | 0.00 | 0.00 | 0.00 | 71 | 1015.5 |
| 20260505172105 | 63 | 142 | 5.0 | 16.0 | 0.00 | 0.00 | 0.00 | 71 | 1015.5 |
| 20260505171846 | 63 | 248 | 5.0 | 16.0 | 0.00 | 0.00 | 0.00 | 70 | 1015.5 |
| 20260505171744 | 63 | 209 | 4.0 | 16.0 | 0.00 | 0.00 | 0.00 | 70 | 1015.4 |
| 20260505171647 | 64 | 192 | 4.0 | 16.0 | 0.00 | 0.00 | 0.00 | 70 | 1015.5 |
| 20260505171540 | 64 | 144 | 4.0 | 16.0 | 0.00 | 0.00 | 0.00 | 70 | 1015.4 |
| 20260505171439 | 64 | 207 | 4.0 | 16.0 | 0.00 | 0.00 | 0.00 | 69 | 1015.4 |
| 20260505171339 | 64 | 190 | 4.0 | 16.0 | 0.00 | 0.00 | 0.00 | 70 | 1015.4 |
| 20260505171316 | 64 | 213 | 4.0 | 16.0 | 0.00 | 0.00 | 0.00 | 69 | 1015.3 |
| 20260505171305 | 64 | 244 | 4.0 | 16.0 | 0.00 | 0.00 | 0.00 | 69 | 1015.3 |
| 20260505171028 | 64 | 136 | 4.0 | 16.0 | 0.00 | 0.00 | 0.00 | 71 | 1015.4 |
| 20260505171000 | 64 | 240 | 5.0 | 16.0 | 0.00 | 0.00 | 0.00 | 70 | 1015.4 |
| 20260505170950 | 64 | 205 | 4.0 | 16.0 | 0.00 | 0.00 | 0.00 | 71 | 1015.5 |
| 20260505170731 | 64 | 141 | 5.0 | 22.0 | 0.00 | 0.00 | 0.00 | 69 | 1015.6 |
| 20260505170655 | 64 | 204 | 7.0 | 26.0 | 0.00 | 0.00 | 0.00 | 69 | 1015.6 |
| 20260505170645 | 64 | 86 | 6.0 | 24.0 | 0.00 | 0.00 | 0.00 | 68 | 1015.6 |
| 20260505170457 | 64 | 207 | 7.0 | 26.0 | 0.00 | 0.00 | 0.00 | 69 | 1015.6 |
| 20260505170447 | 64 | 225 | 7.0 | 26.0 | 0.00 | 0.00 | 0.00 | 69 | 1015.6 |
| 20260505170259 | 64 | 192 | 7.0 | 26.0 | 0.00 | 0.00 | 0.00 | 68 | 1015.6 |
| 20260505170246 | 64 | 182 | 7.0 | 26.0 | 0.00 | 0.00 | 0.00 | 68 | 1015.6 |
| 20260505170017 | 64 | 257 | 7.0 | 26.0 | 0.00 | 0.00 | 0.00 | 67 | 1015.5 |
| 20260505165917 | 64 | 188 | 7.0 | 26.0 | 0.00 | 0.00 | 0.00 | 68 | 1015.4 |
| 20260505165817 | 64 | 214 | 7.0 | 26.0 | 0.00 | 0.00 | 0.00 | 68 | 1015.4 |
| 20260505165718 | 64 | 192 | 6.0 | 26.0 | 0.00 | 0.00 | 0.00 | 69 | 1015.5 |
| 20260505165617 | 64 | 184 | 6.0 | 18.0 | 0.00 | 0.00 | 0.00 | 70 | 1015.6 |
| 20260505165512 | 64 | 240 | 5.0 | 18.0 | 0.00 | 0.00 | 0.00 | 68 | 1015.6 |
| 20260505165411 | 64 | 234 | 5.0 | 16.0 | 0.00 | 0.00 | 0.00 | 68 | 1015.6 |
| 20260505165309 | 64 | 209 | 5.0 | 16.0 | 0.00 | 0.00 | 0.00 | 69 | 1015.6 |
| 20260505165243 | 64 | 202 | 5.0 | 16.0 | 0.00 | 0.00 | 0.00 | 70 | 1015.5 |
| 20260505165231 | 64 | 188 | 5.0 | 16.0 | 0.00 | 0.00 | 0.00 | 68 | 1015.5 |
| 20260505165023 | 64 | 311 | 4.0 | 18.0 | 0.00 | 0.00 | 0.00 | 70 | 1015.6 |
| 20260505165012 | 64 | 171 | 4.0 | 18.0 | 0.00 | 0.00 | 0.00 | 70 | 1015.6 |
| 20260505164951 | 64 | 112 | 4.0 | 18.0 | 0.00 | 0.00 | 0.00 | 69 | 1015.6 |
| 20260505164828 | 64 | 211 | 4.0 | 18.0 | 0.00 | 0.00 | 0.00 | 70 | 1015.6 |
| 20260505164606 | 64 | 178 | 4.0 | 18.0 | 0.00 | 0.00 | 0.00 | 70 | 1015.6 |
| 20260505164506 | 64 | 169 | 5.0 | 18.0 | 0.00 | 0.00 | 0.00 | 70 | 1015.6 |
| 20260505164406 | 64 | 159 | 5.0 | 18.0 | 0.00 | 0.00 | 0.00 | 70 | 1015.6 |
| 20260505164335 | 64 | 212 | 5.0 | 18.0 | 0.00 | 0.00 | 0.00 | 70 | 1015.6 |
| 20260505164325 | 64 | 189 | 5.0 | 18.0 | 0.00 | 0.00 | 0.00 | 70 | 1015.6 |
| 20260505164105 | 64 | 142 | 4.0 | 18.0 | 0.00 | 0.00 | 0.00 | 70 | 1015.6 |
| 20260505164039 | 64 | 211 | 5.0 | 20.0 | 0.00 | 0.00 | 0.00 | 70 | 1015.5 |
| 20260505164027 | 64 | 216 | 5.0 | 20.0 | 0.00 | 0.00 | 0.00 | 70 | 1015.6 |
| 20260505163835 | 64 | 188 | 5.0 | 20.0 | 0.00 | 0.00 | 0.00 | 69 | 1015.7 |
| 20260505163824 | 64 | 167 | 5.0 | 20.0 | 0.00 | 0.00 | 0.00 | 70 | 1015.6 |
| 20260505163602 | 64 | 187 | 5.0 | 20.0 | 0.00 | 0.00 | 0.00 | 69 | 1015.6 |
| 20260505163501 | 64 | 204 | 5.0 | 20.0 | 0.00 | 0.00 | 0.00 | 71 | 1015.7 |
| 20260505163405 | 64 | 165 | 5.0 | 20.0 | 0.00 | 0.00 | 0.00 | 70 | 1015.7 |
| 20260505163302 | 64 | 211 | 5.0 | 20.0 | 0.00 | 0.00 | 0.00 | 69 | 1015.8 |
| 20260505163236 | 64 | 223 | 5.0 | 20.0 | 0.00 | 0.00 | 0.00 | 68 | 1015.7 |
| 20260505163224 | 64 | 172 | 5.0 | 20.0 | 0.00 | 0.00 | 0.00 | 69 | 1015.8 |
| 20260505163001 | 64 | 117 | 4.0 | 15.0 | 0.00 | 0.00 | 0.00 | 70 | 1015.8 |
| 20260505162900 | 64 | 186 | 4.0 | 15.0 | 0.00 | 0.00 | 0.00 | 70 | 1015.9 |
| 20260505162800 | 64 | 186 | 4.0 | 12.0 | 0.00 | 0.00 | 0.00 | 69 | 1015.9 |
| 20260505162732 | 64 | 85 | 4.0 | 12.0 | 0.00 | 0.00 | 0.00 | 70 | 1016.0 |
| 20260505162722 | 64 | 182 | 4.0 | 12.0 | 0.00 | 0.00 | 0.00 | 71 | 1015.9 |
| 20260505162501 | 64 | 194 | 4.0 | 12.0 | 0.00 | 0.00 | 0.00 | 69 | 1015.9 |
| 20260505162357 | 64 | 171 | 4.0 | 12.0 | 0.00 | 0.00 | 0.00 | 70 | 1015.9 |
| 20260505162330 | 64 | 175 | 4.0 | 12.0 | 0.00 | 0.00 | 0.00 | 72 | 1016.0 |
| 20260505162319 | 64 | 223 | 4.0 | 12.0 | 0.00 | 0.00 | 0.00 | 71 | 1015.9 |
| 20260505162137 | 64 | 180 | 4.0 | 12.0 | 0.00 | 0.00 | 0.00 | 71 | 1016.0 |
| 20260505162123 | 64 | 214 | 4.0 | 12.0 | 0.00 | 0.00 | 0.00 | 71 | 1016.1 |
| 20260505161859 | 64 | 169 | 4.0 | 23.0 | 0.00 | 0.00 | 0.00 | 71 | 1016.1 |
| 20260505161758 | 63 | 213 | 4.0 | 23.0 | 0.00 | 0.00 | 0.00 | 72 | 1016.2 |
| 20260505161657 | 63 | 195 | 4.0 | 23.0 | 0.00 | 0.00 | 0.00 | 71 | 1016.1 |
| 20260505161601 | 63 | 224 | 4.0 | 23.0 | 0.00 | 0.00 | 0.00 | 70 | 1016.1 |
| 20260505161458 | 63 | 121 | 4.0 | 23.0 | 0.00 | 0.00 | 0.00 | 71 | 1016.2 |
| 20260505161415 | 63 | 229 | 4.0 | 23.0 | 0.00 | 0.00 | 0.00 | 70 | 1016.2 |
| 20260505161258 | 63 | 196 | 5.0 | 23.0 | 0.00 | 0.00 | 0.00 | 70 | 1016.2 |
| 20260505161159 | 63 | 186 | 5.0 | 23.0 | 0.00 | 0.00 | 0.00 | 70 | 1016.1 |
| 20260505161100 | 64 | 180 | 5.0 | 23.0 | 0.00 | 0.00 | 0.00 | 72 | 1016.1 |
| 20260505160959 | 64 | 202 | 5.0 | 23.0 | 0.00 | 0.00 | 0.00 | 71 | 1016.1 |
| 20260505160853 | 64 | 219 | 5.0 | 19.0 | 0.00 | 0.00 | 0.00 | 71 | 1016.1 |
| 20260505160808 | 64 | 161 | 5.0 | 19.0 | 0.00 | 0.00 | 0.00 | 69 | 1016.2 |
| 20260505160804 | 64 | 267 | 5.0 | 19.0 | 0.00 | 0.00 | 0.00 | 70 | 1016.2 |
| 20260505160754 | 63 | 69 | 5.0 | 19.0 | 0.00 | 0.00 | 0.00 | 70 | 1016.2 |
| 20260505160733 | 64 | 222 | 5.0 | 19.0 | 0.00 | 0.00 | 0.00 | 70 | 1016.1 |
| 20260505160354 | 64 | 192 | 5.0 | 19.0 | 0.00 | 0.00 | 0.00 | 70 | 1016.1 |
| 20260505160251 | 64 | 219 | 5.0 | 19.0 | 0.00 | 0.00 | 0.00 | 71 | 1016.2 |
| 20260505160153 | 64 | 129 | 5.0 | 19.0 | 0.00 | 0.00 | 0.00 | 71 | 1016.2 |
| 20260505153344 | 63 | 200 | 4.0 | 13.0 | 0.00 | 0.00 | 0.00 | 73 | 1015.7 |
| 20260505153244 | 63 | 209 | 4.0 | 13.0 | 0.00 | 0.00 | 0.00 | 74 | 1015.7 |
| 20260505153144 | 63 | 208 | 4.0 | 13.0 | 0.00 | 0.00 | 0.00 | 74 | 1015.7 |
| 20260505153041 | 63 | 275 | 4.0 | 13.0 | 0.00 | 0.00 | 0.00 | 72 | 1015.7 |
| 20260505152933 | 63 | 194 | 4.0 | 13.0 | 0.00 | 0.00 | 0.00 | 73 | 1015.7 |
| 20260505152835 | 63 | 170 | 4.0 | 13.0 | 0.00 | 0.00 | 0.00 | 73 | 1015.7 |
| 20260505152735 | 63 | 196 | 4.0 | 13.0 | 0.00 | 0.00 | 0.00 | 73 | 1015.7 |
| 20260505152633 | 63 | 170 | 4.0 | 13.0 | 0.00 | 0.00 | 0.00 | 73 | 1015.7 |
| 20260505152541 | 63 | 193 | 4.0 | 13.0 | 0.00 | 0.00 | 0.00 | 73 | 1015.7 |
| 20260505152430 | 62 | 83 | 3.0 | 13.0 | 0.00 | 0.00 | 0.00 | 74 | 1015.7 |
| 20260505152331 | 62 | 211 | 3.0 | 11.0 | 0.00 | 0.00 | 0.00 | 74 | 1015.6 |
| 20260505152225 | 62 | 213 | 3.0 | 11.0 | 0.00 | 0.00 | 0.00 | 74 | 1015.7 |
| 20260505152125 | 62 | 186 | 3.0 | 11.0 | 0.00 | 0.00 | 0.00 | 74 | 1015.7 |
| 20260505152028 | 62 | 205 | 3.0 | 11.0 | 0.00 | 0.00 | 0.00 | 74 | 1015.7 |
| 20260505151925 | 62 | 190 | 3.0 | 11.0 | 0.00 | 0.00 | 0.00 | 74 | 1015.6 |
| 20260505151856 | 62 | 183 | 3.0 | 11.0 | 0.00 | 0.00 | 0.00 | 74 | 1015.6 |
| 20260505151846 | 62 | 234 | 3.0 | 11.0 | 0.00 | 0.00 | 0.00 | 73 | 1015.6 |
| 20260505151655 | 62 | 222 | 4.0 | 15.0 | 0.00 | 0.00 | 0.00 | 74 | 1015.6 |
| 20260505151645 | 62 | 218 | 4.0 | 11.0 | 0.00 | 0.00 | 0.00 | 75 | 1015.7 |
| 20260505151424 | 62 | 202 | 4.0 | 15.0 | 0.00 | 0.00 | 0.00 | 73 | 1015.6 |
| 20260505151324 | 62 | 196 | 4.0 | 15.0 | 0.00 | 0.00 | 0.00 | 74 | 1015.5 |
| 20260505151224 | 62 | 190 | 4.0 | 15.0 | 0.00 | 0.00 | 0.00 | 74 | 1015.6 |
| 20260505151152 | 62 | 194 | 4.0 | 15.0 | 0.00 | 0.00 | 0.00 | 74 | 1015.5 |
| 20260505151144 | 62 | 126 | 4.0 | 15.0 | 0.00 | 0.00 | 0.00 | 74 | 1015.4 |
| 20260505150922 | 62 | 192 | 5.0 | 15.0 | 0.00 | 0.00 | 0.00 | 73 | 1015.5 |
| 20260505150823 | 62 | 209 | 5.0 | 15.0 | 0.00 | 0.00 | 0.00 | 74 | 1015.5 |
| 20260505150716 | 62 | 180 | 5.0 | 15.0 | 0.00 | 0.00 | 0.00 | 75 | 1015.6 |
| 20260505150617 | 62 | 163 | 4.0 | 15.0 | 0.00 | 0.00 | 0.00 | 75 | 1015.5 |
| 20260505150517 | 61 | 174 | 4.0 | 12.0 | 0.00 | 0.00 | 0.00 | 75 | 1015.4 |
| 20260505150416 | 61 | 196 | 4.0 | 12.0 | 0.00 | 0.00 | 0.00 | 74 | 1015.5 |
| 20260505150317 | 61 | 149 | 4.0 | 12.0 | 0.00 | 0.00 | 0.00 | 75 | 1015.5 |
| 20260505150214 | 61 | 188 | 4.0 | 12.0 | 0.00 | 0.00 | 0.00 | 74 | 1015.5 |
| 20260505150114 | 61 | 219 | 4.0 | 12.0 | 0.00 | 0.00 | 0.00 | 74 | 1015.5 |
| 20260505140545 | 58 | 198 | 4.0 | 15.0 | 0.00 | 0.00 | 0.00 | 76 | 1015.0 |
| 20260505140536 | 58 | 213 | 4.0 | 15.0 | 0.00 | 0.00 | 0.00 | 76 | 1015.1 |
| 20260505140315 | 58 | 196 | 4.0 | 15.0 | 0.00 | 0.00 | 0.00 | 77 | 1015.1 |
| 20260505140213 | 58 | 192 | 4.0 | 15.0 | 0.00 | 0.00 | 0.00 | 77 | 1015.0 |
| 20260505140113 | 58 | 200 | 4.0 | 15.0 | 0.00 | 0.00 | 0.00 | 76 | 1015.0 |
| 20260505130231 | 57 | 221 | 4.0 | 10.0 | 0.00 | 0.00 | 0.00 | 75 | 1014.8 |
| 20260505124944 | 57 | 210 | 5.0 | 14.0 | 0.00 | 0.00 | 0.00 | 73 | 1015.2 |
| 20260505124843 | 57 | 230 | 5.0 | 14.0 | 0.00 | 0.00 | 0.00 | 73 | 1015.2 |
| 20260505124743 | 57 | 207 | 5.0 | 15.0 | 0.00 | 0.00 | 0.00 | 73 | 1015.3 |
| 20260505124714 | 57 | 186 | 5.0 | 15.0 | 0.00 | 0.00 | 0.00 | 73 | 1015.3 |
| 20260505124704 | 57 | 211 | 5.0 | 15.0 | 0.00 | 0.00 | 0.00 | 73 | 1015.4 |
| 20260505124444 | 57 | 207 | 5.0 | 15.0 | 0.00 | 0.00 | 0.00 | 73 | 1015.4 |
| 20260505124343 | 57 | 198 | 5.0 | 15.0 | 0.00 | 0.00 | 0.00 | 73 | 1015.5 |
| 20260505124316 | 57 | 192 | 5.0 | 15.0 | 0.00 | 0.00 | 0.00 | 73 | 1015.4 |
| 20260505124306 | 57 | 183 | 5.0 | 15.0 | 0.00 | 0.00 | 0.00 | 73 | 1015.4 |
| 20260505124105 | 57 | 211 | 5.0 | 21.0 | 0.00 | 0.00 | 0.00 | 73 | 1015.5 |
| 20260505124100 | 57 | 202 | 5.0 | 21.0 | 0.00 | 0.00 | 0.00 | 73 | 1015.5 |
| 20260505124049 | 57 | 80 | 5.0 | 15.0 | 0.00 | 0.00 | 0.00 | 73 | 1015.4 |
| 20260505124027 | 57 | 206 | 5.0 | 21.0 | 0.00 | 0.00 | 0.00 | 73 | 1015.4 |
| 20260505123645 | 57 | 194 | 5.0 | 21.0 | 0.00 | 0.00 | 0.00 | 72 | 1015.4 |
| 20260505123556 | 57 | 210 | 5.0 | 21.0 | 0.00 | 0.00 | 0.00 | 73 | 1015.5 |
| 20260505123550 | 57 | 161 | 5.0 | 21.0 | 0.00 | 0.00 | 0.00 | 73 | 1015.4 |
| 20260505123537 | 57 | 215 | 5.0 | 21.0 | 0.00 | 0.00 | 0.00 | 73 | 1015.4 |
| 20260505123516 | 57 | 180 | 5.0 | 21.0 | 0.00 | 0.00 | 0.00 | 73 | 1015.4 |
| 20260505123135 | 57 | 190 | 5.0 | 21.0 | 0.00 | 0.00 | 0.00 | 72 | 1015.3 |
| 20260505123036 | 57 | 198 | 4.0 | 21.0 | 0.00 | 0.00 | 0.00 | 72 | 1015.3 |
| 20260505122936 | 57 | 209 | 5.0 | 15.0 | 0.00 | 0.00 | 0.00 | 73 | 1015.4 |
| 20260505122835 | 57 | 182 | 5.0 | 17.0 | 0.00 | 0.00 | 0.00 | 73 | 1015.4 |
| 20260505122737 | 57 | 208 | 5.0 | 17.0 | 0.00 | 0.00 | 0.00 | 72 | 1015.3 |
| 20260505122711 | 57 | 191 | 5.0 | 17.0 | 0.00 | 0.00 | 0.00 | 72 | 1015.3 |
| 20260505122700 | 57 | 165 | 5.0 | 17.0 | 0.00 | 0.00 | 0.00 | 72 | 1015.4 |
| 20260505122435 | 57 | 199 | 5.0 | 17.0 | 0.00 | 0.00 | 0.00 | 72 | 1015.3 |
| 20260505122338 | 57 | 200 | 5.0 | 17.0 | 0.00 | 0.00 | 0.00 | 72 | 1015.3 |
| 20260505122237 | 57 | 211 | 5.0 | 17.0 | 0.00 | 0.00 | 0.00 | 72 | 1015.2 |
| 20260505122136 | 57 | 197 | 5.0 | 17.0 | 0.00 | 0.00 | 0.00 | 72 | 1015.2 |
| 20260505122035 | 57 | 220 | 5.0 | 17.0 | 0.00 | 0.00 | 0.00 | 72 | 1015.2 |
| 20260505121936 | 57 | 237 | 5.0 | 17.0 | 0.00 | 0.00 | 0.00 | 72 | 1015.2 |
| 20260505121837 | 57 | 207 | 5.0 | 11.0 | 0.00 | 0.00 | 0.00 | 71 | 1015.2 |
| 20260505121753 | 57 | 197 | 4.0 | 16.0 | 0.00 | 0.00 | 0.00 | 72 | 1015.1 |
| 20260505121741 | 57 | 196 | 4.0 | 11.0 | 0.00 | 0.00 | 0.00 | 71 | 1015.2 |
| 20260505121720 | 57 | 209 | 4.0 | 10.0 | 0.00 | 0.00 | 0.00 | 71 | 1015.1 |
| 20260505121559 | 57 | 176 | 5.0 | 16.0 | 0.00 | 0.00 | 0.00 | 71 | 1015.1 |
| 20260505121335 | 57 | 208 | 5.0 | 16.0 | 0.00 | 0.00 | 0.00 | 71 | 1015.0 |
| 20260505121307 | 57 | 191 | 5.0 | 16.0 | 0.00 | 0.00 | 0.00 | 70 | 1014.8 |
| 20260505121256 | 57 | 222 | 5.0 | 16.0 | 0.00 | 0.00 | 0.00 | 70 | 1014.8 |
| 20260505121035 | 57 | 210 | 5.0 | 16.0 | 0.00 | 0.00 | 0.00 | 70 | 1014.8 |
| 20260505120933 | 57 | 194 | 5.0 | 16.0 | 0.00 | 0.00 | 0.00 | 71 | 1014.7 |
| 20260505120835 | 57 | 181 | 5.0 | 16.0 | 0.00 | 0.00 | 0.00 | 70 | 1014.8 |
| 20260505120733 | 57 | 229 | 5.0 | 16.0 | 0.00 | 0.00 | 0.00 | 70 | 1014.6 |
| 20260505120633 | 57 | 213 | 5.0 | 16.0 | 0.00 | 0.00 | 0.00 | 70 | 1014.7 |
| 20260505120538 | 57 | 205 | 5.0 | 14.0 | 0.00 | 0.00 | 0.00 | 70 | 1014.6 |
| 20260505120433 | 57 | 215 | 5.0 | 12.0 | 0.00 | 0.00 | 0.00 | 70 | 1014.6 |
| 20260505120333 | 57 | 190 | 5.0 | 12.0 | 0.00 | 0.00 | 0.00 | 70 | 1014.6 |
| 20260505120230 | 57 | 192 | 5.0 | 12.0 | 0.00 | 0.00 | 0.00 | 70 | 1014.5 |
| 20260505120130 | 57 | 200 | 5.0 | 12.0 | 0.00 | 0.00 | 0.00 | 70 | 1014.5 |
| 20260505120028 | 56 | 153 | 5.0 | 12.0 | 0.00 | 0.00 | 0.00 | 71 | 1014.5 |
| 20260505115927 | 56 | 209 | 5.0 | 12.0 | 0.00 | 0.00 | 0.00 | 71 | 1014.5 |
| 20260505115826 | 56 | 207 | 5.0 | 12.0 | 0.00 | 0.00 | 0.00 | 71 | 1014.5 |
| 20260505115757 | 56 | 211 | 5.0 | 16.0 | 0.00 | 0.00 | 0.00 | 71 | 1014.4 |
| 20260505115747 | 56 | 214 | 5.0 | 16.0 | 0.00 | 0.00 | 0.00 | 71 | 1014.6 |
| 20260505115602 | 56 | 193 | 5.0 | 16.0 | 0.00 | 0.00 | 0.00 | 71 | 1014.5 |
| 20260505115549 | 56 | 173 | 5.0 | 16.0 | 0.00 | 0.00 | 0.00 | 71 | 1014.6 |
| 20260505115400 | 56 | 215 | 5.0 | 16.0 | 0.00 | 0.00 | 0.00 | 71 | 1014.4 |
| 20260505115347 | 56 | 190 | 5.0 | 16.0 | 0.00 | 0.00 | 0.00 | 71 | 1014.4 |
| 20260505115125 | 56 | 180 | 5.0 | 16.0 | 0.00 | 0.00 | 0.00 | 71 | 1014.4 |
| 20260505115024 | 56 | 223 | 5.0 | 16.0 | 0.00 | 0.00 | 0.00 | 71 | 1014.4 |
| 20260505114923 | 56 | 215 | 5.0 | 16.0 | 0.00 | 0.00 | 0.00 | 70 | 1014.5 |
| 20260505114825 | 56 | 197 | 5.0 | 16.0 | 0.00 | 0.00 | 0.00 | 71 | 1014.4 |
| 20260505114725 | 56 | 201 | 5.0 | 13.0 | 0.00 | 0.00 | 0.00 | 70 | 1014.4 |
| 20260505114624 | 56 | 207 | 5.0 | 11.0 | 0.00 | 0.00 | 0.00 | 70 | 1014.4 |
| 20260505114519 | 56 | 206 | 5.0 | 14.0 | 0.00 | 0.00 | 0.00 | 70 | 1014.3 |
| 20260505114417 | 57 | 222 | 5.0 | 14.0 | 0.00 | 0.00 | 0.00 | 70 | 1014.3 |
| 20260505114318 | 57 | 199 | 5.0 | 14.0 | 0.00 | 0.00 | 0.00 | 70 | 1014.3 |
| 20260505114219 | 57 | 198 | 5.0 | 14.0 | 0.00 | 0.00 | 0.00 | 70 | 1014.3 |
| 20260505114145 | 57 | 166 | 6.0 | 14.0 | 0.00 | 0.00 | 0.00 | 70 | 1014.2 |
| 20260505114136 | 57 | 196 | 5.0 | 14.0 | 0.00 | 0.00 | 0.00 | 70 | 1014.2 |
| 20260505113914 | 57 | 212 | 5.0 | 21.0 | 0.00 | 0.00 | 0.00 | 70 | 1014.2 |
| 20260505113812 | 57 | 151 | 5.0 | 21.0 | 0.00 | 0.00 | 0.00 | 69 | 1014.2 |
| 20260505113711 | 57 | 199 | 6.0 | 21.0 | 0.00 | 0.00 | 0.00 | 69 | 1014.2 |
| 20260505113611 | 57 | 207 | 6.0 | 21.0 | 0.00 | 0.00 | 0.00 | 69 | 1014.1 |
| 20260505113507 | 57 | 200 | 6.0 | 21.0 | 0.00 | 0.00 | 0.00 | 69 | 1014.1 |
| 20260505113406 | 57 | 190 | 5.0 | 21.0 | 0.00 | 0.00 | 0.00 | 69 | 1014.1 |
| 20260505113305 | 57 | 189 | 6.0 | 21.0 | 0.00 | 0.00 | 0.00 | 69 | 1014.1 |
| 20260505113204 | 57 | 202 | 6.0 | 21.0 | 0.00 | 0.00 | 0.00 | 69 | 1014.1 |
| 20260505113120 | 57 | 191 | 5.0 | 16.0 | 0.00 | 0.00 | 0.00 | 69 | 1014.1 |
| 20260505113108 | 57 | 199 | 5.0 | 21.0 | 0.00 | 0.00 | 0.00 | 69 | 1014.1 |
| 20260505113059 | 57 | 210 | 5.0 | 16.0 | 0.00 | 0.00 | 0.00 | 69 | 1014.1 |
| 20260505112827 | 57 | 203 | 5.0 | 12.0 | 0.00 | 0.00 | 0.00 | 69 | 1014.2 |
| 20260505112817 | 57 | 206 | 5.0 | 14.0 | 0.00 | 0.00 | 0.00 | 70 | 1014.1 |
| 20260505112556 | 57 | 203 | 5.0 | 12.0 | 0.00 | 0.00 | 0.00 | 69 | 1014.1 |
| 20260505112450 | 57 | 209 | 5.0 | 12.0 | 0.00 | 0.00 | 0.00 | 69 | 1014.1 |
| 20260505112350 | 57 | 208 | 5.0 | 11.0 | 0.00 | 0.00 | 0.00 | 69 | 1014.0 |
| 20260505112250 | 57 | 157 | 5.0 | 12.0 | 0.00 | 0.00 | 0.00 | 69 | 1014.0 |
| 20260505112149 | 57 | 187 | 5.0 | 12.0 | 0.00 | 0.00 | 0.00 | 69 | 1014.0 |
| 20260505112049 | 57 | 180 | 5.0 | 12.0 | 0.00 | 0.00 | 0.00 | 69 | 1014.0 |
| 20260505111944 | 57 | 216 | 5.0 | 12.0 | 0.00 | 0.00 | 0.00 | 69 | 1014.1 |
| 20260505111844 | 57 | 217 | 6.0 | 13.0 | 0.00 | 0.00 | 0.00 | 68 | 1014.1 |
| 20260505111742 | 57 | 162 | 6.0 | 13.0 | 0.00 | 0.00 | 0.00 | 69 | 1014.0 |
| 20260505111642 | 57 | 211 | 6.0 | 20.0 | 0.00 | 0.00 | 0.00 | 68 | 1014.1 |
| 20260505111543 | 57 | 190 | 6.0 | 20.0 | 0.00 | 0.00 | 0.00 | 68 | 1014.1 |
| 20260505111444 | 57 | 149 | 6.0 | 20.0 | 0.00 | 0.00 | 0.00 | 68 | 1014.1 |
| 20260505111343 | 57 | 216 | 6.0 | 20.0 | 0.00 | 0.00 | 0.00 | 68 | 1014.0 |
| 20260505111242 | 57 | 190 | 6.0 | 20.0 | 0.00 | 0.00 | 0.00 | 68 | 1014.0 |
| 20260505111204 | 57 | 220 | 6.0 | 20.0 | 0.00 | 0.00 | 0.00 | 68 | 1013.9 |
| 20260505111158 | 57 | 220 | 6.0 | 20.0 | 0.00 | 0.00 | 0.00 | 68 | 1013.9 |
| 20260505111145 | 57 | 196 | 6.0 | 20.0 | 0.00 | 0.00 | 0.00 | 68 | 1014.0 |
| 20260505111120 | 57 | 173 | 6.0 | 20.0 | 0.00 | 0.00 | 0.00 | 68 | 1013.9 |
| 20260505110739 | 57 | 208 | 6.0 | 20.0 | 0.00 | 0.00 | 0.00 | 68 | 1013.9 |
| 20260505110639 | 57 | 230 | 6.0 | 14.0 | 0.00 | 0.00 | 0.00 | 68 | 1013.9 |
| 20260505110539 | 57 | 200 | 6.0 | 14.0 | 0.00 | 0.00 | 0.00 | 68 | 1013.9 |
| 20260505110440 | 57 | 201 | 6.0 | 14.0 | 0.00 | 0.00 | 0.00 | 68 | 1013.9 |
| 20260505110410 | 57 | 287 | 6.0 | 13.0 | 0.00 | 0.00 | 0.00 | 68 | 1013.9 |
| 20260505110358 | 57 | 206 | 6.0 | 14.0 | 0.00 | 0.00 | 0.00 | 68 | 1014.0 |
| 20260505110138 | 57 | 204 | 6.0 | 19.0 | 0.00 | 0.00 | 0.00 | 68 | 1013.9 |
| 20260505110111 | 57 | 199 | 6.0 | 19.0 | 0.00 | 0.00 | 0.00 | 68 | 1013.8 |
| 20260505102114 | 57 | 193 | 5.0 | 15.0 | 0.00 | 0.00 | 0.00 | 68 | 1013.5 |
| 20260505102014 | 57 | 209 | 5.0 | 17.0 | 0.00 | 0.00 | 0.00 | 68 | 1013.5 |
| 20260505101913 | 57 | 200 | 5.0 | 17.0 | 0.00 | 0.00 | 0.00 | 68 | 1013.4 |
| 20260505101801 | 57 | 209 | 5.0 | 17.0 | 0.00 | 0.00 | 0.00 | 68 | 1013.5 |
| 20260505101732 | 57 | 207 | 5.0 | 17.0 | 0.00 | 0.00 | 0.00 | 68 | 1013.5 |
| 20260505101723 | 57 | 206 | 5.0 | 17.0 | 0.00 | 0.00 | 0.00 | 67 | 1013.4 |
| 20260505101531 | 57 | 202 | 5.0 | 17.0 | 0.00 | 0.00 | 0.00 | 68 | 1013.4 |
| 20260505101521 | 57 | 203 | 5.0 | 17.0 | 0.00 | 0.00 | 0.00 | 68 | 1013.4 |
| 20260505101255 | 57 | 205 | 5.0 | 17.0 | 0.00 | 0.00 | 0.00 | 68 | 1013.4 |
| 20260505101155 | 57 | 179 | 5.0 | 17.0 | 0.00 | 0.00 | 0.00 | 68 | 1013.5 |
| 20260505101054 | 57 | 192 | 5.0 | 17.0 | 0.00 | 0.00 | 0.00 | 68 | 1013.5 |
| 20260505100954 | 57 | 212 | 5.0 | 15.0 | 0.00 | 0.00 | 0.00 | 68 | 1013.5 |
| 20260505100854 | 57 | 215 | 5.0 | 15.0 | 0.00 | 0.00 | 0.00 | 68 | 1013.4 |
| 20260505100747 | 57 | 201 | 5.0 | 15.0 | 0.00 | 0.00 | 0.00 | 68 | 1013.5 |
| 20260505100649 | 57 | 195 | 5.0 | 15.0 | 0.00 | 0.00 | 0.00 | 68 | 1013.5 |
| 20260505100548 | 57 | 216 | 5.0 | 15.0 | 0.00 | 0.00 | 0.00 | 68 | 1013.4 |
| 20260505100448 | 57 | 206 | 5.0 | 15.0 | 0.00 | 0.00 | 0.00 | 68 | 1013.5 |
| 20260505100348 | 57 | 171 | 5.0 | 14.0 | 0.00 | 0.00 | 0.00 | 68 | 1013.5 |
| 20260505100312 | 57 | 200 | 6.0 | 16.0 | 0.00 | 0.00 | 0.00 | 68 | 1013.5 |
| 20260505100258 | 57 | 212 | 6.0 | 16.0 | 0.00 | 0.00 | 0.00 | 68 | 1013.5 |
| 20260505100038 | 57 | 171 | 6.0 | 16.0 | 0.00 | 0.00 | 0.00 | 68 | 1013.6 |
| 20260505095937 | 57 | 183 | 6.0 | 16.0 | 0.00 | 0.00 | 0.00 | 68 | 1013.5 |
| 20260505095837 | 58 | 185 | 6.0 | 16.0 | 0.00 | 0.00 | 0.00 | 68 | 1013.4 |
| 20260505095735 | 58 | 210 | 6.0 | 16.0 | 0.00 | 0.00 | 0.00 | 67 | 1013.5 |
| 20260505095635 | 58 | 202 | 6.0 | 16.0 | 0.00 | 0.00 | 0.00 | 67 | 1013.5 |
| 20260505095535 | 58 | 200 | 6.0 | 17.0 | 0.00 | 0.00 | 0.00 | 67 | 1013.4 |
| 20260505095509 | 58 | 161 | 6.0 | 17.0 | 0.00 | 0.00 | 0.00 | 67 | 1013.4 |
| 20260505095459 | 58 | 196 | 6.0 | 17.0 | 0.00 | 0.00 | 0.00 | 67 | 1013.4 |
| 20260505095235 | 58 | 188 | 6.0 | 17.0 | 0.00 | 0.00 | 0.00 | 67 | 1013.5 |
| 20260505095135 | 58 | 213 | 6.0 | 17.0 | 0.00 | 0.00 | 0.00 | 67 | 1013.4 |
| 20260505095035 | 58 | 194 | 6.0 | 17.0 | 0.00 | 0.00 | 0.00 | 67 | 1013.4 |
| 20260505094935 | 58 | 178 | 5.0 | 17.0 | 0.00 | 0.00 | 0.00 | 67 | 1013.4 |
| 20260505094835 | 58 | 170 | 5.0 | 17.0 | 0.00 | 0.00 | 0.00 | 67 | 1013.4 |
| 20260505094812 | 58 | 194 | 5.0 | 17.0 | 0.00 | 0.00 | 0.00 | 67 | 1013.4 |
| 20260505094759 | 58 | 178 | 5.0 | 17.0 | 0.00 | 0.00 | 0.00 | 67 | 1013.5 |
| 20260505094533 | 58 | 191 | 5.0 | 14.0 | 0.00 | 0.00 | 0.00 | 67 | 1013.4 |
| 20260505094507 | 58 | 220 | 6.0 | 14.0 | 0.00 | 0.00 | 0.00 | 67 | 1013.4 |
| 20260505094457 | 58 | 182 | 6.0 | 14.0 | 0.00 | 0.00 | 0.00 | 67 | 1013.5 |
| 20260505094232 | 58 | 224 | 6.0 | 14.0 | 0.00 | 0.00 | 0.00 | 67 | 1013.2 |
| 20260505094133 | 58 | 192 | 6.0 | 14.0 | 0.00 | 0.00 | 0.00 | 67 | 1013.2 |
| 20260505094114 | 58 | 209 | 6.0 | 17.0 | 0.00 | 0.00 | 0.00 | 67 | 1013.4 |
| 20260505094108 | 58 | 205 | 6.0 | 17.0 | 0.00 | 0.00 | 0.00 | 67 | 1013.5 |
| 20260505094104 | 58 | 202 | 6.0 | 17.0 | 0.00 | 0.00 | 0.00 | 67 | 1013.4 |
| 20260505094053 | 58 | 193 | 6.0 | 14.0 | 0.00 | 0.00 | 0.00 | 67 | 1013.5 |
| 20260505093911 | 58 | 190 | 6.0 | 17.0 | 0.00 | 0.00 | 0.00 | 67 | 1013.4 |
| 20260505093532 | 58 | 155 | 6.0 | 17.0 | 0.00 | 0.00 | 0.00 | 67 | 1013.4 |
| 20260505093430 | 58 | 174 | 6.0 | 17.0 | 0.00 | 0.00 | 0.00 | 68 | 1013.4 |
| 20260505093333 | 58 | 188 | 6.0 | 17.0 | 0.00 | 0.00 | 0.00 | 68 | 1013.5 |
| 20260505093232 | 58 | 184 | 6.0 | 17.0 | 0.00 | 0.00 | 0.00 | 67 | 1013.5 |
| 20260505093133 | 58 | 181 | 6.0 | 17.0 | 0.00 | 0.00 | 0.00 | 67 | 1013.6 |
| 20260505093032 | 58 | 190 | 6.0 | 17.0 | 0.00 | 0.00 | 0.00 | 67 | 1013.5 |
| 20260505092932 | 58 | 211 | 6.0 | 17.0 | 0.00 | 0.00 | 0.00 | 67 | 1013.5 |
| 20260505092832 | 58 | 169 | 6.0 | 17.0 | 0.00 | 0.00 | 0.00 | 67 | 1013.5 |
| 20260505092732 | 58 | 173 | 6.0 | 17.0 | 0.00 | 0.00 | 0.00 | 67 | 1013.6 |
| 20260505092632 | 58 | 208 | 6.0 | 17.0 | 0.00 | 0.00 | 0.00 | 67 | 1013.6 |
| 20260505092532 | 58 | 192 | 7.0 | 17.0 | 0.00 | 0.00 | 0.00 | 67 | 1013.6 |
| 20260505092429 | 58 | 223 | 7.0 | 17.0 | 0.00 | 0.00 | 0.00 | 67 | 1013.6 |
| 20260505092329 | 58 | 217 | 7.0 | 18.0 | 0.00 | 0.00 | 0.00 | 67 | 1013.5 |
| 20260505092229 | 58 | 226 | 7.0 | 18.0 | 0.00 | 0.00 | 0.00 | 67 | 1013.5 |
| 20260505092204 | 58 | 195 | 7.0 | 18.0 | 0.00 | 0.00 | 0.00 | 66 | 1013.6 |
| 20260505092152 | 58 | 232 | 7.0 | 18.0 | 0.00 | 0.00 | 0.00 | 67 | 1013.5 |
| 20260505092002 | 58 | 232 | 7.0 | 22.0 | 0.00 | 0.00 | 0.00 | 66 | 1013.6 |
| 20260505091950 | 58 | 194 | 7.0 | 18.0 | 0.00 | 0.00 | 0.00 | 66 | 1013.6 |
| 20260505091730 | 58 | 165 | 7.0 | 22.0 | 0.00 | 0.00 | 0.00 | 67 | 1013.6 |
| 20260505091627 | 58 | 202 | 7.0 | 22.0 | 0.00 | 0.00 | 0.00 | 67 | 1013.5 |
| 20260505091601 | 58 | 211 | 7.0 | 22.0 | 0.00 | 0.00 | 0.00 | 67 | 1013.5 |
| 20260505091550 | 58 | 221 | 7.0 | 22.0 | 0.00 | 0.00 | 0.00 | 67 | 1013.5 |
| 20260505091327 | 58 | 202 | 7.0 | 22.0 | 0.00 | 0.00 | 0.00 | 67 | 1013.5 |
| 20260505091228 | 58 | 189 | 7.0 | 22.0 | 0.00 | 0.00 | 0.00 | 67 | 1013.6 |
| 20260505091159 | 58 | 182 | 7.0 | 22.0 | 0.00 | 0.00 | 0.00 | 67 | 1013.5 |
| 20260505091147 | 58 | 267 | 7.0 | 22.0 | 0.00 | 0.00 | 0.00 | 67 | 1013.4 |
| 20260505090959 | 58 | 211 | 7.0 | 21.0 | 0.00 | 0.00 | 0.00 | 67 | 1013.6 |
| 20260505090947 | 58 | 194 | 7.0 | 22.0 | 0.00 | 0.00 | 0.00 | 67 | 1013.5 |
| 20260505090727 | 58 | 175 | 7.0 | 16.0 | 0.00 | 0.00 | 0.00 | 67 | 1013.5 |
| 20260505090627 | 58 | 182 | 6.0 | 16.0 | 0.00 | 0.00 | 0.00 | 67 | 1013.5 |
| 20260505090526 | 58 | 211 | 7.0 | 16.0 | 0.00 | 0.00 | 0.00 | 67 | 1013.5 |
| 20260505090425 | 58 | 191 | 6.0 | 16.0 | 0.00 | 0.00 | 0.00 | 67 | 1013.4 |
| 20260505090359 | 58 | 189 | 7.0 | 16.0 | 0.00 | 0.00 | 0.00 | 67 | 1013.2 |
| 20260505090350 | 58 | 191 | 6.0 | 16.0 | 0.00 | 0.00 | 0.00 | 67 | 1013.2 |
| 20260505090200 | 58 | 195 | 7.0 | 16.0 | 0.00 | 0.00 | 0.00 | 68 | 1013.1 |
| 20260505090149 | 58 | 219 | 7.0 | 16.0 | 0.00 | 0.00 | 0.00 | 67 | 1013.2 |
| 20260505085923 | 58 | 194 | 7.0 | 16.0 | 0.00 | 0.00 | 0.00 | 67 | 1013.1 |
| 20260505085856 | 58 | 221 | 6.0 | 16.0 | 0.00 | 0.00 | 0.00 | 67 | 1013.1 |
| 20260505085845 | 58 | 185 | 6.0 | 16.0 | 0.00 | 0.00 | 0.00 | 67 | 1013.1 |
| 20260505085623 | 58 | 207 | 7.0 | 21.0 | 0.00 | 0.00 | 0.00 | 68 | 1013.0 |
| 20260505085558 | 58 | 197 | 6.0 | 21.0 | 0.00 | 0.00 | 0.00 | 67 | 1013.0 |
| 20260505085545 | 58 | 194 | 6.0 | 21.0 | 0.00 | 0.00 | 0.00 | 67 | 1013.0 |
| 20260505085323 | 58 | 181 | 6.0 | 21.0 | 0.00 | 0.00 | 0.00 | 68 | 1012.9 |
| 20260505085223 | 58 | 191 | 6.0 | 21.0 | 0.00 | 0.00 | 0.00 | 68 | 1012.9 |
| 20260505085125 | 58 | 188 | 6.0 | 21.0 | 0.00 | 0.00 | 0.00 | 68 | 1013.0 |
| 20260505085023 | 58 | 198 | 6.0 | 21.0 | 0.00 | 0.00 | 0.00 | 68 | 1012.8 |
| 20260505084922 | 58 | 215 | 6.0 | 21.0 | 0.00 | 0.00 | 0.00 | 68 | 1012.9 |
| 20260505084854 | 58 | 200 | 6.0 | 21.0 | 0.00 | 0.00 | 0.00 | 68 | 1012.9 |
| 20260505084843 | 58 | 202 | 6.0 | 21.0 | 0.00 | 0.00 | 0.00 | 68 | 1013.0 |
| 20260505084652 | 58 | 233 | 6.0 | 19.0 | 0.00 | 0.00 | 0.00 | 68 | 1013.0 |
| 20260505084642 | 58 | 162 | 6.0 | 20.0 | 0.00 | 0.00 | 0.00 | 68 | 1013.0 |
| 20260505084418 | 58 | 202 | 6.0 | 19.0 | 0.00 | 0.00 | 0.00 | 68 | 1013.0 |
| 20260505084358 | 58 | 185 | 7.0 | 20.0 | 0.00 | 0.00 | 0.00 | 68 | 1013.0 |
| 20260505084353 | 58 | 201 | 6.0 | 20.0 | 0.00 | 0.00 | 0.00 | 68 | 1013.1 |
| 20260505084347 | 58 | 191 | 6.0 | 20.0 | 0.00 | 0.00 | 0.00 | 68 | 1013.1 |
| 20260505084333 | 58 | 199 | 6.0 | 19.0 | 0.00 | 0.00 | 0.00 | 68 | 1013.0 |
| 20260505084315 | 58 | 200 | 7.0 | 19.0 | 0.00 | 0.00 | 0.00 | 68 | 1013.0 |
| 20260505083837 | 58 | 169 | 6.0 | 20.0 | 0.00 | 0.00 | 0.00 | 67 | 1013.0 |
| 20260505083828 | 58 | 190 | 6.0 | 20.0 | 0.00 | 0.00 | 0.00 | 68 | 1013.1 |
| 20260505083636 | 58 | 221 | 6.0 | 20.0 | 0.00 | 0.00 | 0.00 | 67 | 1013.0 |
| 20260505083627 | 58 | 191 | 6.0 | 20.0 | 0.00 | 0.00 | 0.00 | 68 | 1013.0 |
| 20260505083406 | 58 | 210 | 6.0 | 20.0 | 0.00 | 0.00 | 0.00 | 68 | 1013.0 |
| 20260505083306 | 58 | 183 | 6.0 | 20.0 | 0.00 | 0.00 | 0.00 | 68 | 1013.0 |
| 20260505083252 | 58 | 190 | 6.0 | 24.0 | 0.00 | 0.00 | 0.00 | 68 | 1012.9 |
| 20260505083231 | 58 | 199 | 6.0 | 24.0 | 0.00 | 0.00 | 0.00 | 68 | 1013.0 |
| 20260505083108 | 58 | 183 | 6.0 | 24.0 | 0.00 | 0.00 | 0.00 | 67 | 1012.9 |
| 20260505083047 | 58 | 196 | 6.0 | 24.0 | 0.00 | 0.00 | 0.00 | 68 | 1013.0 |
| 20260505082855 | 58 | 207 | 6.0 | 24.0 | 0.00 | 0.00 | 0.00 | 68 | 1013.0 |
| 20260505082848 | 58 | 180 | 6.0 | 24.0 | 0.00 | 0.00 | 0.00 | 68 | 1012.9 |
| 20260505082830 | 58 | 195 | 7.0 | 24.0 | 0.00 | 0.00 | 0.00 | 68 | 1012.9 |
| 20260505082450 | 58 | 237 | 6.0 | 24.0 | 0.00 | 0.00 | 0.00 | 68 | 1012.9 |
| 20260505082350 | 58 | 175 | 6.0 | 24.0 | 0.00 | 0.00 | 0.00 | 68 | 1012.8 |
| 20260505082250 | 58 | 195 | 6.0 | 20.0 | 0.00 | 0.00 | 0.00 | 68 | 1012.9 |
| 20260505082150 | 58 | 198 | 6.0 | 20.0 | 0.00 | 0.00 | 0.00 | 69 | 1012.9 |
| 20260505082049 | 58 | 200 | 6.0 | 22.0 | 0.00 | 0.00 | 0.00 | 68 | 1013.0 |
| 20260505081949 | 58 | 204 | 6.0 | 22.0 | 0.00 | 0.00 | 0.00 | 68 | 1012.9 |
| 20260505081848 | 58 | 175 | 6.0 | 22.0 | 0.00 | 0.00 | 0.00 | 68 | 1012.9 |
| 20260505081822 | 58 | 207 | 6.0 | 22.0 | 0.00 | 0.00 | 0.00 | 68 | 1012.9 |
| 20260505081811 | 58 | 184 | 6.0 | 22.0 | 0.00 | 0.00 | 0.00 | 68 | 1012.9 |
| 20260505081550 | 58 | 210 | 6.0 | 22.0 | 0.00 | 0.00 | 0.00 | 68 | 1012.9 |
| 20260505081450 | 58 | 191 | 6.0 | 22.0 | 0.00 | 0.00 | 0.00 | 67 | 1013.0 |
| 20260505081349 | 58 | 165 | 6.0 | 22.0 | 0.00 | 0.00 | 0.00 | 68 | 1012.9 |
| 20260505081250 | 58 | 190 | 6.0 | 22.0 | 0.00 | 0.00 | 0.00 | 68 | 1012.9 |
| 20260505081150 | 58 | 186 | 6.0 | 22.0 | 0.00 | 0.00 | 0.00 | 68 | 1012.9 |
| 20260505081050 | 58 | 190 | 6.0 | 17.0 | 0.00 | 0.00 | 0.00 | 68 | 1012.9 |
| 20260505080944 | 58 | 192 | 6.0 | 17.0 | 0.00 | 0.00 | 0.00 | 68 | 1012.9 |
| 20260505080845 | 58 | 107 | 6.0 | 17.0 | 0.00 | 0.00 | 0.00 | 68 | 1012.9 |
| 20260505080744 | 58 | 183 | 6.0 | 19.0 | 0.00 | 0.00 | 0.00 | 69 | 1013.0 |
| 20260505080644 | 58 | 167 | 6.0 | 19.0 | 0.00 | 0.00 | 0.00 | 69 | 1012.9 |
| 20260505080544 | 58 | 196 | 7.0 | 19.0 | 0.00 | 0.00 | 0.00 | 68 | 1012.9 |
| 20260505080442 | 58 | 195 | 7.0 | 19.0 | 0.00 | 0.00 | 0.00 | 68 | 1013.0 |
| 20260505080343 | 58 | 200 | 7.0 | 19.0 | 0.00 | 0.00 | 0.00 | 68 | 1012.8 |
| 20260505080243 | 58 | 213 | 7.0 | 19.0 | 0.00 | 0.00 | 0.00 | 68 | 1013.0 |
| 20260505080145 | 58 | 202 | 7.0 | 19.0 | 0.00 | 0.00 | 0.00 | 68 | 1012.9 |
| 20260505080044 | 58 | 199 | 7.0 | 19.0 | 0.00 | 0.00 | 0.00 | 68 | 1012.9 |
| 20260505075944 | 58 | 179 | 7.0 | 19.0 | 0.00 | 0.00 | 0.00 | 68 | 1012.9 |
| 20260505075910 | 58 | 223 | 7.0 | 27.0 | 0.00 | 0.00 | 0.00 | 69 | 1012.9 |
| 20260505075904 | 58 | 221 | 7.0 | 27.0 | 0.00 | 0.00 | 0.00 | 68 | 1012.9 |
| 20260505075900 | 58 | 211 | 7.0 | 27.0 | 0.00 | 0.00 | 0.00 | 69 | 1012.9 |
| 20260505075847 | 58 | 206 | 7.0 | 19.0 | 0.00 | 0.00 | 0.00 | 68 | 1012.9 |
| 20260505075828 | 58 | 190 | 7.0 | 27.0 | 0.00 | 0.00 | 0.00 | 68 | 1012.9 |
| 20260505075541 | 58 | 229 | 7.0 | 27.0 | 0.00 | 0.00 | 0.00 | 68 | 1012.9 |
| 20260505075520 | 58 | 190 | 7.0 | 27.0 | 0.00 | 0.00 | 0.00 | 68 | 1012.9 |
| 20260505075212 | 58 | 167 | 7.0 | 27.0 | 0.00 | 0.00 | 0.00 | 69 | 1012.9 |
| 20260505075207 | 58 | 191 | 7.0 | 27.0 | 0.00 | 0.00 | 0.00 | 69 | 1012.9 |
| 20260505075156 | 58 | 200 | 7.0 | 27.0 | 0.00 | 0.00 | 0.00 | 69 | 1012.9 |
| 20260505075134 | 58 | 170 | 7.0 | 27.0 | 0.00 | 0.00 | 0.00 | 69 | 1012.9 |
| 20260505074838 | 58 | 209 | 7.0 | 19.0 | 0.00 | 0.00 | 0.00 | 70 | 1013.0 |
| 20260505074833 | 58 | 187 | 7.0 | 23.0 | 0.00 | 0.00 | 0.00 | 69 | 1012.9 |
| 20260505074827 | 58 | 194 | 7.0 | 23.0 | 0.00 | 0.00 | 0.00 | 69 | 1012.9 |
| 20260505074816 | 58 | 219 | 7.0 | 23.0 | 0.00 | 0.00 | 0.00 | 70 | 1012.9 |
| 20260505074630 | 58 | 240 | 7.0 | 23.0 | 0.00 | 0.00 | 0.00 | 69 | 1012.9 |
| 20260505074342 | 58 | 202 | 7.0 | 23.0 | 0.00 | 0.00 | 0.00 | 69 | 1012.9 |
| 20260505074320 | 58 | 298 | 6.0 | 23.0 | 0.00 | 0.00 | 0.00 | 70 | 1013.0 |
| 20260505074157 | 58 | 205 | 7.0 | 19.0 | 0.00 | 0.00 | 0.00 | 70 | 1012.9 |
| 20260505073936 | 58 | 162 | 6.0 | 19.0 | 0.00 | 0.00 | 0.00 | 70 | 1013.0 |
| 20260505073854 | 58 | 212 | 7.0 | 19.0 | 0.00 | 0.00 | 0.00 | 70 | 1013.1 |
| 20260505073842 | 58 | 225 | 6.0 | 19.0 | 0.00 | 0.00 | 0.00 | 70 | 1012.9 |
| 20260505073820 | 58 | 200 | 7.0 | 19.0 | 0.00 | 0.00 | 0.00 | 70 | 1013.1 |
| 20260505073657 | 58 | 207 | 7.0 | 19.0 | 0.00 | 0.00 | 0.00 | 70 | 1013.1 |
| 20260505073437 | 58 | 202 | 7.0 | 19.0 | 0.00 | 0.00 | 0.00 | 70 | 1013.2 |
| 20260505073337 | 58 | 220 | 7.0 | 19.0 | 0.00 | 0.00 | 0.00 | 70 | 1013.1 |
| 20260505073238 | 58 | 204 | 7.0 | 19.0 | 0.00 | 0.00 | 0.00 | 70 | 1013.1 |
| 20260505073138 | 58 | 209 | 7.0 | 19.0 | 0.00 | 0.00 | 0.00 | 69 | 1013.1 |
| 20260505073037 | 58 | 204 | 7.0 | 19.0 | 0.00 | 0.00 | 0.00 | 70 | 1013.1 |
| 20260505073004 | 58 | 219 | 7.0 | 19.0 | 0.00 | 0.00 | 0.00 | 69 | 1013.1 |
| 20260505072955 | 58 | 178 | 7.0 | 19.0 | 0.00 | 0.00 | 0.00 | 69 | 1013.2 |
| 20260505072731 | 58 | 182 | 7.0 | 19.0 | 0.00 | 0.00 | 0.00 | 70 | 1013.1 |
| 20260505072706 | 58 | 211 | 7.0 | 19.0 | 0.00 | 0.00 | 0.00 | 70 | 1013.2 |
| 20260505072654 | 58 | 190 | 7.0 | 19.0 | 0.00 | 0.00 | 0.00 | 70 | 1013.1 |
| 20260505072432 | 58 | 194 | 7.0 | 19.0 | 0.00 | 0.00 | 0.00 | 70 | 1013.2 |
| 20260505072324 | 58 | 188 | 7.0 | 20.0 | 0.00 | 0.00 | 0.00 | 70 | 1013.2 |
| 20260505072226 | 58 | 191 | 7.0 | 20.0 | 0.00 | 0.00 | 0.00 | 70 | 1013.4 |
| 20260505072125 | 58 | 193 | 7.0 | 20.0 | 0.00 | 0.00 | 0.00 | 69 | 1013.4 |
| 20260505072026 | 58 | 207 | 6.0 | 20.0 | 0.00 | 0.00 | 0.00 | 70 | 1013.5 |
| 20260505071926 | 58 | 190 | 6.0 | 20.0 | 0.00 | 0.00 | 0.00 | 70 | 1013.5 |
| 20260505071904 | 58 | 198 | 6.0 | 18.0 | 0.00 | 0.00 | 0.00 | 69 | 1013.6 |
| 20260505071858 | 58 | 136 | 6.0 | 20.0 | 0.00 | 0.00 | 0.00 | 70 | 1013.5 |
| 20260505071852 | 58 | 186 | 6.0 | 18.0 | 0.00 | 0.00 | 0.00 | 70 | 1013.4 |
| 20260505071839 | 58 | 200 | 6.0 | 20.0 | 0.00 | 0.00 | 0.00 | 69 | 1013.5 |
| 20260505071814 | 58 | 171 | 6.0 | 20.0 | 0.00 | 0.00 | 0.00 | 70 | 1013.4 |
| 20260505071644 | 58 | 200 | 6.0 | 20.0 | 0.00 | 0.00 | 0.00 | 70 | 1013.5 |
| 20260505071625 | 58 | 190 | 6.0 | 20.0 | 0.00 | 0.00 | 0.00 | 70 | 1013.6 |
| 20260505071120 | 58 | 140 | 7.0 | 18.0 | 0.00 | 0.00 | 0.00 | 70 | 1013.6 |
| 20260505071054 | 58 | 196 | 7.0 | 18.0 | 0.00 | 0.00 | 0.00 | 69 | 1013.5 |
| 20260505071043 | 58 | 171 | 7.0 | 18.0 | 0.00 | 0.00 | 0.00 | 70 | 1013.6 |
| 20260505070819 | 58 | 198 | 7.0 | 18.0 | 0.00 | 0.00 | 0.00 | 69 | 1013.6 |
| 20260505070738 | 58 | 242 | 7.0 | 18.0 | 0.00 | 0.00 | 0.00 | 69 | 1013.6 |
| 20260505070732 | 58 | 202 | 7.0 | 18.0 | 0.00 | 0.00 | 0.00 | 69 | 1013.6 |
| 20260505070722 | 58 | 194 | 7.0 | 18.0 | 0.00 | 0.00 | 0.00 | 69 | 1013.6 |
| 20260505070700 | 58 | 186 | 7.0 | 18.0 | 0.00 | 0.00 | 0.00 | 69 | 1013.6 |
| 20260505070319 | 58 | 202 | 7.0 | 18.0 | 0.00 | 0.00 | 0.00 | 69 | 1013.6 |
| 20260505070219 | 58 | 232 | 7.0 | 18.0 | 0.00 | 0.00 | 0.00 | 69 | 1013.5 |
| 20260505070106 | 58 | 200 | 7.0 | 18.0 | 0.00 | 0.00 | 0.00 | 69 | 1013.6 |
| 20260505070005 | 58 | 146 | 7.0 | 18.0 | 0.00 | 0.00 | 0.00 | 69 | 1013.6 |
| 20260505065906 | 58 | 193 | 7.0 | 18.0 | 0.00 | 0.00 | 0.00 | 69 | 1013.7 |
| 20260505065806 | 58 | 202 | 7.0 | 18.0 | 0.00 | 0.00 | 0.00 | 69 | 1013.7 |
| 20260505065736 | 58 | 182 | 7.0 | 18.0 | 0.00 | 0.00 | 0.00 | 69 | 1013.6 |
| 20260505065725 | 58 | 225 | 7.0 | 18.0 | 0.00 | 0.00 | 0.00 | 69 | 1013.7 |
| 20260505065500 | 58 | 179 | 7.0 | 18.0 | 0.00 | 0.00 | 0.00 | 69 | 1013.7 |
| 20260505065400 | 58 | 172 | 7.0 | 17.0 | 0.00 | 0.00 | 0.00 | 69 | 1013.6 |
| 20260505065336 | 59 | 273 | 7.0 | 17.0 | 0.00 | 0.00 | 0.00 | 69 | 1013.6 |
| 20260505065325 | 58 | 219 | 7.0 | 17.0 | 0.00 | 0.00 | 0.00 | 69 | 1013.7 |
| 20260505065054 | 59 | 218 | 7.0 | 16.0 | 0.00 | 0.00 | 0.00 | 69 | 1013.8 |
| 20260505065011 | 59 | 205 | 7.0 | 17.0 | 0.00 | 0.00 | 0.00 | 69 | 1013.7 |
| 20260505065007 | 59 | 199 | 7.0 | 17.0 | 0.00 | 0.00 | 0.00 | 68 | 1013.7 |
| 20260505064957 | 59 | 203 | 7.0 | 17.0 | 0.00 | 0.00 | 0.00 | 69 | 1013.7 |
| 20260505064935 | 59 | 219 | 7.0 | 17.0 | 0.00 | 0.00 | 0.00 | 69 | 1013.7 |
| 20260505064543 | 59 | 173 | 7.0 | 17.0 | 0.00 | 0.00 | 0.00 | 69 | 1013.7 |
| 20260505064443 | 59 | 175 | 7.0 | 17.0 | 0.00 | 0.00 | 0.00 | 69 | 1013.7 |
| 20260505064343 | 59 | 207 | 7.0 | 17.0 | 0.00 | 0.00 | 0.00 | 68 | 1013.8 |
| 20260505064243 | 59 | 205 | 7.0 | 17.0 | 0.00 | 0.00 | 0.00 | 69 | 1013.7 |
| 20260505064145 | 59 | 236 | 7.0 | 17.0 | 0.00 | 0.00 | 0.00 | 69 | 1013.8 |
| 20260505064114 | 59 | 174 | 7.0 | 21.0 | 0.00 | 0.00 | 0.00 | 68 | 1013.8 |
| 20260505064102 | 59 | 211 | 7.0 | 16.0 | 0.00 | 0.00 | 0.00 | 68 | 1013.8 |
| 20260505063907 | 59 | 204 | 7.0 | 21.0 | 0.00 | 0.00 | 0.00 | 68 | 1013.8 |
| 20260505063856 | 59 | 200 | 7.0 | 21.0 | 0.00 | 0.00 | 0.00 | 68 | 1013.8 |
| 20260505063637 | 59 | 209 | 7.0 | 21.0 | 0.00 | 0.00 | 0.00 | 68 | 1013.8 |
| 20260505063601 | 59 | 198 | 7.0 | 21.0 | 0.00 | 0.00 | 0.00 | 68 | 1013.8 |
| 20260505063555 | 59 | 189 | 7.0 | 21.0 | 0.00 | 0.00 | 0.00 | 68 | 1013.8 |
| 20260505063541 | 59 | 200 | 7.0 | 21.0 | 0.00 | 0.00 | 0.00 | 68 | 1013.8 |
| 20260505063517 | 59 | 200 | 7.0 | 21.0 | 0.00 | 0.00 | 0.00 | 68 | 1013.9 |
| 20260505063139 | 59 | 219 | 7.0 | 21.0 | 0.00 | 0.00 | 0.00 | 68 | 1013.8 |
| 20260505063133 | 59 | 188 | 7.0 | 15.0 | 0.00 | 0.00 | 0.00 | 68 | 1013.9 |
| 20260505063127 | 59 | 217 | 7.0 | 19.0 | 0.00 | 0.00 | 0.00 | 68 | 1013.9 |
| 20260505063121 | 59 | 228 | 7.0 | 19.0 | 0.00 | 0.00 | 0.00 | 68 | 1013.9 |
| 20260505063117 | 59 | 203 | 7.0 | 18.0 | 0.00 | 0.00 | 0.00 | 68 | 1013.9 |
| 20260505063104 | 59 | 194 | 7.0 | 21.0 | 0.00 | 0.00 | 0.00 | 68 | 1013.9 |
| 20260505063040 | 59 | 205 | 7.0 | 19.0 | 0.00 | 0.00 | 0.00 | 69 | 1013.8 |
| 20260505062918 | 59 | 226 | 7.0 | 19.0 | 0.00 | 0.00 | 0.00 | 68 | 1013.9 |
| 20260505062737 | 59 | 235 | 7.0 | 19.0 | 0.00 | 0.00 | 0.00 | 68 | 1013.9 |
| 20260505062238 | 59 | 196 | 7.0 | 16.0 | 0.00 | 0.00 | 0.00 | 68 | 1013.9 |
| 20260505062138 | 59 | 178 | 7.0 | 16.0 | 0.00 | 0.00 | 0.00 | 68 | 1013.8 |
| 20260505062037 | 59 | 190 | 7.0 | 16.0 | 0.00 | 0.00 | 0.00 | 68 | 1013.9 |
| 20260505061936 | 59 | 200 | 7.0 | 16.0 | 0.00 | 0.00 | 0.00 | 68 | 1014.0 |
| 20260505061836 | 59 | 194 | 6.0 | 16.0 | 0.00 | 0.00 | 0.00 | 68 | 1013.9 |
| 20260505061736 | 59 | 162 | 6.0 | 16.0 | 0.00 | 0.00 | 0.00 | 68 | 1013.9 |
| 20260505061638 | 59 | 204 | 6.0 | 16.0 | 0.00 | 0.00 | 0.00 | 67 | 1013.9 |
| 20260505061538 | 59 | 187 | 6.0 | 16.0 | 0.00 | 0.00 | 0.00 | 67 | 1013.9 |
| 20260505061437 | 59 | 198 | 6.0 | 16.0 | 0.00 | 0.00 | 0.00 | 67 | 1013.9 |
| 20260505061336 | 59 | 216 | 6.0 | 16.0 | 0.00 | 0.00 | 0.00 | 67 | 1013.9 |
| 20260505061237 | 59 | 142 | 6.0 | 14.0 | 0.00 | 0.00 | 0.00 | 67 | 1013.9 |
| 20260505061137 | 59 | 179 | 6.0 | 18.0 | 0.00 | 0.00 | 0.00 | 67 | 1013.9 |
| 20260505061037 | 59 | 182 | 6.0 | 18.0 | 0.00 | 0.00 | 0.00 | 67 | 1013.9 |
| 20260505060938 | 59 | 204 | 6.0 | 18.0 | 0.00 | 0.00 | 0.00 | 67 | 1014.0 |
| 20260505060914 | 59 | 216 | 6.0 | 18.0 | 0.00 | 0.00 | 0.00 | 68 | 1013.9 |
| 20260505060902 | 59 | 218 | 6.0 | 18.0 | 0.00 | 0.00 | 0.00 | 67 | 1013.9 |
| 20260505060636 | 59 | 187 | 6.0 | 18.0 | 0.00 | 0.00 | 0.00 | 67 | 1013.9 |
| 20260505060537 | 59 | 213 | 6.0 | 18.0 | 0.00 | 0.00 | 0.00 | 67 | 1013.9 |
| 20260505060438 | 59 | 129 | 6.0 | 18.0 | 0.00 | 0.00 | 0.00 | 67 | 1014.0 |
| 20260505060339 | 59 | 188 | 6.0 | 18.0 | 0.00 | 0.00 | 0.00 | 67 | 1014.0 |
| 20260505060314 | 59 | 215 | 6.0 | 17.0 | 0.00 | 0.00 | 0.00 | 67 | 1014.0 |
| 20260505060310 | 59 | 190 | 6.0 | 15.0 | 0.00 | 0.00 | 0.00 | 67 | 1013.9 |
| 20260505060256 | 59 | 215 | 6.0 | 18.0 | 0.00 | 0.00 | 0.00 | 67 | 1014.0 |
| 20260505060109 | 59 | 193 | 7.0 | 15.0 | 0.00 | 0.00 | 0.00 | 67 | 1014.0 |
| 20260505055952 | 59 | 169 | 7.0 | 17.0 | 0.00 | 0.00 | 0.00 | 68 | 1014.0 |
| 20260505055938 | 59 | 213 | 7.0 | 17.0 | 0.00 | 0.00 | 0.00 | 67 | 1014.0 |
| 20260505055916 | 59 | 196 | 7.0 | 17.0 | 0.00 | 0.00 | 0.00 | 67 | 1013.9 |
| 20260505055608 | 59 | 193 | 7.0 | 17.0 | 0.00 | 0.00 | 0.00 | 67 | 1013.9 |
| 20260505055554 | 59 | 181 | 6.0 | 17.0 | 0.00 | 0.00 | 0.00 | 67 | 1014.0 |
| 20260505055330 | 59 | 178 | 7.0 | 17.0 | 0.00 | 0.00 | 0.00 | 67 | 1014.0 |
| 20260505055230 | 59 | 204 | 7.0 | 17.0 | 0.00 | 0.00 | 0.00 | 67 | 1013.9 |
| 20260505055128 | 59 | 216 | 7.0 | 17.0 | 0.00 | 0.00 | 0.00 | 67 | 1014.0 |
| 20260505055028 | 59 | 179 | 6.0 | 17.0 | 0.00 | 0.00 | 0.00 | 67 | 1014.0 |
| 20260505054930 | 59 | 201 | 7.0 | 17.0 | 0.00 | 0.00 | 0.00 | 67 | 1014.0 |
| 20260505054830 | 59 | 207 | 6.0 | 17.0 | 0.00 | 0.00 | 0.00 | 67 | 1014.0 |
| 20260505054728 | 59 | 203 | 7.0 | 17.0 | 0.00 | 0.00 | 0.00 | 67 | 1014.0 |
| 20260505054703 | 59 | 193 | 7.0 | 17.0 | 0.00 | 0.00 | 0.00 | 66 | 1014.0 |
| 20260505054649 | 59 | 198 | 7.0 | 17.0 | 0.00 | 0.00 | 0.00 | 67 | 1014.0 |
| 20260505054506 | 60 | 192 | 7.0 | 17.0 | 0.00 | 0.00 | 0.00 | 67 | 1014.0 |
| 20260505054452 | 59 | 198 | 7.0 | 17.0 | 0.00 | 0.00 | 0.00 | 67 | 1014.0 |
| 20260505054229 | 60 | 186 | 7.0 | 17.0 | 0.00 | 0.00 | 0.00 | 66 | 1014.0 |
| 20260505054130 | 59 | 187 | 7.0 | 17.0 | 0.00 | 0.00 | 0.00 | 66 | 1014.0 |
| 20260505054031 | 60 | 201 | 7.0 | 17.0 | 0.00 | 0.00 | 0.00 | 66 | 1014.0 |
| 20260505053928 | 60 | 198 | 7.0 | 14.0 | 0.00 | 0.00 | 0.00 | 67 | 1014.0 |
| 20260505053828 | 60 | 192 | 7.0 | 14.0 | 0.00 | 0.00 | 0.00 | 66 | 1014.0 |
| 20260505053728 | 60 | 194 | 7.0 | 15.0 | 0.00 | 0.00 | 0.00 | 66 | 1013.9 |
| 20260505053631 | 60 | 204 | 7.0 | 22.0 | 0.00 | 0.00 | 0.00 | 66 | 1013.9 |
| 20260505053608 | 60 | 203 | 7.0 | 22.0 | 0.00 | 0.00 | 0.00 | 66 | 1013.9 |
| 20260505053556 | 60 | 195 | 7.0 | 22.0 | 0.00 | 0.00 | 0.00 | 66 | 1014.0 |
| 20260505053328 | 60 | 200 | 7.0 | 22.0 | 0.00 | 0.00 | 0.00 | 66 | 1013.9 |
| 20260505053229 | 60 | 203 | 7.0 | 22.0 | 0.00 | 0.00 | 0.00 | 66 | 1014.0 |
| 20260505053129 | 60 | 214 | 7.0 | 22.0 | 0.00 | 0.00 | 0.00 | 66 | 1013.9 |
| 20260505053029 | 60 | 200 | 7.0 | 22.0 | 0.00 | 0.00 | 0.00 | 66 | 1013.9 |
| 20260505052916 | 60 | 184 | 7.0 | 22.0 | 0.00 | 0.00 | 0.00 | 66 | 1013.8 |
| 20260505052848 | 60 | 190 | 7.0 | 22.0 | 0.00 | 0.00 | 0.00 | 66 | 1013.9 |
| 20260505052839 | 60 | 198 | 7.0 | 22.0 | 0.00 | 0.00 | 0.00 | 66 | 1013.9 |
| 20260505052649 | 60 | 190 | 7.0 | 18.0 | 0.00 | 0.00 | 0.00 | 66 | 1013.8 |
| 20260505052639 | 60 | 184 | 7.0 | 21.0 | 0.00 | 0.00 | 0.00 | 66 | 1014.0 |
| 20260505052416 | 60 | 178 | 7.0 | 17.0 | 0.00 | 0.00 | 0.00 | 66 | 1013.9 |
| 20260505052318 | 60 | 220 | 7.0 | 15.0 | 0.00 | 0.00 | 0.00 | 66 | 1014.0 |
| 20260505052218 | 60 | 215 | 7.0 | 15.0 | 0.00 | 0.00 | 0.00 | 66 | 1014.0 |
| 20260505052117 | 60 | 210 | 7.0 | 15.0 | 0.00 | 0.00 | 0.00 | 66 | 1013.9 |
| 20260505052019 | 60 | 202 | 7.0 | 15.0 | 0.00 | 0.00 | 0.00 | 66 | 1014.0 |
| 20260505051916 | 60 | 205 | 7.0 | 15.0 | 0.00 | 0.00 | 0.00 | 65 | 1014.0 |
| 20260505051817 | 60 | 186 | 7.0 | 15.0 | 0.00 | 0.00 | 0.00 | 66 | 1014.1 |
| 20260505051718 | 60 | 194 | 7.0 | 16.0 | 0.00 | 0.00 | 0.00 | 65 | 1013.9 |
| 20260505051618 | 60 | 200 | 7.0 | 16.0 | 0.00 | 0.00 | 0.00 | 65 | 1013.9 |
| 20260505051518 | 60 | 213 | 7.0 | 16.0 | 0.00 | 0.00 | 0.00 | 65 | 1014.0 |
| 20260505051416 | 60 | 194 | 6.0 | 16.0 | 0.00 | 0.00 | 0.00 | 65 | 1014.1 |
| 20260505051317 | 60 | 181 | 7.0 | 16.0 | 0.00 | 0.00 | 0.00 | 65 | 1014.1 |
| 20260505051251 | 60 | 194 | 6.0 | 16.0 | 0.00 | 0.00 | 0.00 | 65 | 1014.0 |
| 20260505051240 | 60 | 196 | 7.0 | 16.0 | 0.00 | 0.00 | 0.00 | 65 | 1014.0 |
| 20260505051014 | 60 | 202 | 7.0 | 16.0 | 0.00 | 0.00 | 0.00 | 65 | 1014.1 |
| 20260505050914 | 60 | 200 | 7.0 | 16.0 | 0.00 | 0.00 | 0.00 | 65 | 1014.1 |
| 20260505050815 | 60 | 200 | 7.0 | 16.0 | 0.00 | 0.00 | 0.00 | 65 | 1014.1 |
| 20260505050714 | 60 | 194 | 7.0 | 16.0 | 0.00 | 0.00 | 0.00 | 65 | 1014.0 |
| 20260505050615 | 60 | 229 | 7.0 | 16.0 | 0.00 | 0.00 | 0.00 | 65 | 1014.1 |
| 20260505050514 | 60 | 212 | 7.0 | 16.0 | 0.00 | 0.00 | 0.00 | 64 | 1014.0 |
| 20260505050412 | 60 | 204 | 7.0 | 16.0 | 0.00 | 0.00 | 0.00 | 65 | 1014.1 |
| 20260505050314 | 60 | 202 | 7.0 | 16.0 | 0.00 | 0.00 | 0.00 | 65 | 1014.0 |
| 20260505050212 | 60 | 249 | 7.0 | 15.0 | 0.00 | 0.00 | 0.00 | 65 | 1014.0 |
| 20260505050113 | 60 | 197 | 7.0 | 15.0 | 0.00 | 0.00 | 0.00 | 65 | 1014.0 |
| 20260505041712 | 61 | 212 | 6.0 | 19.0 | 0.00 | 0.00 | 0.00 | 63 | 1013.9 |
| 20260505041520 | 61 | 282 | 5.0 | 19.0 | 0.00 | 0.00 | 0.00 | 63 | 1013.8 |
| 20260505041507 | 61 | 196 | 5.0 | 19.0 | 0.00 | 0.00 | 0.00 | 63 | 1013.8 |
| 20260505041320 | 61 | 223 | 5.0 | 19.0 | 0.00 | 0.00 | 0.00 | 63 | 1013.8 |
| 20260505041307 | 61 | 193 | 5.0 | 19.0 | 0.00 | 0.00 | 0.00 | 63 | 1013.8 |
| 20260505041045 | 61 | 184 | 6.0 | 19.0 | 0.00 | 0.00 | 0.00 | 62 | 1013.8 |
| 20260505040941 | 61 | 194 | 6.0 | 19.0 | 0.00 | 0.00 | 0.00 | 62 | 1013.8 |
| 20260505040842 | 61 | 197 | 6.0 | 19.0 | 0.00 | 0.00 | 0.00 | 62 | 1013.8 |
| 20260505040742 | 61 | 203 | 6.0 | 19.0 | 0.00 | 0.00 | 0.00 | 62 | 1013.7 |
| 20260505040641 | 61 | 206 | 6.0 | 17.0 | 0.00 | 0.00 | 0.00 | 63 | 1013.8 |
| 20260505040616 | 61 | 198 | 6.0 | 17.0 | 0.00 | 0.00 | 0.00 | 62 | 1013.8 |
| 20260505040605 | 61 | 186 | 6.0 | 17.0 | 0.00 | 0.00 | 0.00 | 62 | 1013.8 |
| 20260505040340 | 61 | 182 | 6.0 | 18.0 | 0.00 | 0.00 | 0.00 | 62 | 1013.8 |
| 20260505040238 | 61 | 200 | 6.0 | 18.0 | 0.00 | 0.00 | 0.00 | 62 | 1013.8 |
| 20260505040140 | 61 | 200 | 6.0 | 18.0 | 0.00 | 0.00 | 0.00 | 62 | 1013.8 |
| 20260505040039 | 61 | 196 | 6.0 | 18.0 | 0.00 | 0.00 | 0.00 | 62 | 1013.8 |
| 20260505040009 | 61 | 203 | 6.0 | 18.0 | 0.00 | 0.00 | 0.00 | 62 | 1013.8 |
| 20260505035959 | 61 | 190 | 6.0 | 18.0 | 0.00 | 0.00 | 0.00 | 62 | 1013.8 |
| 20260505035737 | 61 | 249 | 6.0 | 18.0 | 0.00 | 0.00 | 0.00 | 62 | 1013.8 |
| 20260505035710 | 61 | 197 | 6.0 | 27.0 | 0.00 | 0.00 | 0.00 | 62 | 1013.8 |
| 20260505035658 | 61 | 206 | 6.0 | 18.0 | 0.00 | 0.00 | 0.00 | 62 | 1013.9 |
| 20260505035437 | 61 | 173 | 6.0 | 27.0 | 0.00 | 0.00 | 0.00 | 62 | 1013.9 |
| 20260505035423 | 62 | 200 | 6.0 | 27.0 | 0.00 | 0.00 | 0.00 | 62 | 1013.9 |
| 20260505035418 | 61 | 200 | 6.0 | 27.0 | 0.00 | 0.00 | 0.00 | 62 | 1013.9 |
| 20260505035405 | 61 | 220 | 6.0 | 27.0 | 0.00 | 0.00 | 0.00 | 62 | 1013.9 |
| 20260505035217 | 61 | 176 | 6.0 | 27.0 | 0.00 | 0.00 | 0.00 | 62 | 1013.9 |
| 20260505035052 | 61 | 210 | 6.0 | 27.0 | 0.00 | 0.00 | 0.00 | 62 | 1013.9 |
| 20260505034835 | 62 | 194 | 6.0 | 27.0 | 0.00 | 0.00 | 0.00 | 62 | 1013.8 |
| 20260505034733 | 62 | 184 | 6.0 | 27.0 | 0.00 | 0.00 | 0.00 | 62 | 1013.9 |
| 20260505034631 | 61 | 205 | 6.0 | 27.0 | 0.00 | 0.00 | 0.00 | 61 | 1013.8 |
| 20260505034533 | 62 | 180 | 6.0 | 15.0 | 0.00 | 0.00 | 0.00 | 62 | 1013.8 |
| 20260505034432 | 62 | 203 | 6.0 | 15.0 | 0.00 | 0.00 | 0.00 | 62 | 1013.8 |
| 20260505034331 | 62 | 199 | 6.0 | 15.0 | 0.00 | 0.00 | 0.00 | 62 | 1013.8 |
| 20260505034232 | 62 | 203 | 6.0 | 15.0 | 0.00 | 0.00 | 0.00 | 62 | 1013.8 |
| 20260505034133 | 62 | 219 | 6.0 | 14.0 | 0.00 | 0.00 | 0.00 | 62 | 1013.7 |
| 20260505034035 | 62 | 187 | 6.0 | 14.0 | 0.00 | 0.00 | 0.00 | 62 | 1013.8 |
| 20260505033931 | 62 | 163 | 6.0 | 14.0 | 0.00 | 0.00 | 0.00 | 62 | 1013.8 |
| 20260505033830 | 62 | 216 | 6.0 | 14.0 | 0.00 | 0.00 | 0.00 | 62 | 1013.8 |
| 20260505033802 | 62 | 164 | 6.0 | 14.0 | 0.00 | 0.00 | 0.00 | 62 | 1013.8 |
| 20260505033729 | 62 | 164 | 6.0 | 14.0 | 0.00 | 0.00 | 0.00 | 62 | 1013.8 |
| 20260505033629 | 62 | 161 | 6.0 | 14.0 | 0.00 | 0.00 | 0.00 | 62 | 1013.8 |
| 20260505033529 | 62 | 182 | 6.0 | 19.0 | 0.00 | 0.00 | 0.00 | 62 | 1013.8 |
| 20260505033501 | 62 | 196 | 6.0 | 19.0 | 0.00 | 0.00 | 0.00 | 62 | 1013.9 |
| 20260505033450 | 62 | 215 | 6.0 | 19.0 | 0.00 | 0.00 | 0.00 | 62 | 1013.9 |
| 20260505033242 | 62 | 191 | 6.0 | 19.0 | 0.00 | 0.00 | 0.00 | 62 | 1013.8 |
| 20260505033232 | 62 | 203 | 6.0 | 19.0 | 0.00 | 0.00 | 0.00 | 62 | 1013.8 |
| 20260505033225 | 62 | 200 | 6.0 | 19.0 | 0.00 | 0.00 | 0.00 | 61 | 1013.8 |
| 20260505033207 | 62 | 207 | 6.0 | 19.0 | 0.00 | 0.00 | 0.00 | 62 | 1013.8 |
| 20260505032901 | 62 | 198 | 6.0 | 15.0 | 0.00 | 0.00 | 0.00 | 62 | 1013.9 |
| 20260505032855 | 62 | 267 | 6.0 | 15.0 | 0.00 | 0.00 | 0.00 | 62 | 1014.1 |
| 20260505032843 | 62 | 198 | 6.0 | 19.0 | 0.00 | 0.00 | 0.00 | 61 | 1013.8 |
| 20260505032817 | 62 | 186 | 6.0 | 19.0 | 0.00 | 0.00 | 0.00 | 62 | 1013.8 |
| 20260505032654 | 62 | 225 | 6.0 | 19.0 | 0.00 | 0.00 | 0.00 | 62 | 1013.9 |
| 20260505032509 | 62 | 191 | 6.0 | 15.0 | 0.00 | 0.00 | 0.00 | 61 | 1014.0 |
| 20260505032347 | 62 | 186 | 6.0 | 15.0 | 0.00 | 0.00 | 0.00 | 62 | 1014.0 |
| 20260505032128 | 62 | 147 | 6.0 | 15.0 | 0.00 | 0.00 | 0.00 | 62 | 1013.9 |
| 20260505032058 | 62 | 194 | 6.0 | 15.0 | 0.00 | 0.00 | 0.00 | 61 | 1013.9 |
| 20260505032047 | 62 | 200 | 6.0 | 15.0 | 0.00 | 0.00 | 0.00 | 61 | 1013.9 |
| 20260505031902 | 62 | 190 | 6.0 | 14.0 | 0.00 | 0.00 | 0.00 | 61 | 1014.0 |
| 20260505031850 | 62 | 188 | 6.0 | 14.0 | 0.00 | 0.00 | 0.00 | 61 | 1014.0 |
| 20260505031625 | 62 | 65 | 6.0 | 15.0 | 0.00 | 0.00 | 0.00 | 61 | 1014.0 |
| 20260505031525 | 62 | 120 | 6.0 | 15.0 | 0.00 | 0.00 | 0.00 | 62 | 1014.1 |
| 20260505031425 | 62 | 181 | 6.0 | 15.0 | 0.00 | 0.00 | 0.00 | 62 | 1014.0 |
| 20260505031324 | 62 | 209 | 5.0 | 15.0 | 0.00 | 0.00 | 0.00 | 61 | 1014.0 |
| 20260505031225 | 62 | 198 | 5.0 | 15.0 | 0.00 | 0.00 | 0.00 | 62 | 1014.0 |
| 20260505031126 | 62 | 199 | 6.0 | 15.0 | 0.00 | 0.00 | 0.00 | 62 | 1014.0 |
| 20260505031053 | 62 | 182 | 5.0 | 15.0 | 0.00 | 0.00 | 0.00 | 61 | 1013.9 |
| 20260505031042 | 62 | 190 | 5.0 | 15.0 | 0.00 | 0.00 | 0.00 | 61 | 1013.9 |
| 20260505030820 | 62 | 202 | 6.0 | 15.0 | 0.00 | 0.00 | 0.00 | 61 | 1013.9 |
| 20260505030755 | 62 | 129 | 5.0 | 14.0 | 0.00 | 0.00 | 0.00 | 61 | 1013.9 |
| 20260505030745 | 62 | 173 | 6.0 | 15.0 | 0.00 | 0.00 | 0.00 | 61 | 1014.0 |
| 20260505030521 | 62 | 161 | 5.0 | 14.0 | 0.00 | 0.00 | 0.00 | 61 | 1014.0 |
| 20260505030420 | 62 | 143 | 5.0 | 17.0 | 0.00 | 0.00 | 0.00 | 61 | 1014.0 |
| 20260505030319 | 62 | 184 | 5.0 | 17.0 | 0.00 | 0.00 | 0.00 | 61 | 1013.9 |
| 20260505030219 | 62 | 187 | 5.0 | 17.0 | 0.00 | 0.00 | 0.00 | 61 | 1013.9 |
| 20260505030120 | 62 | 188 | 5.0 | 17.0 | 0.00 | 0.00 | 0.00 | 61 | 1013.9 |
| 20260505030020 | 62 | 191 | 5.0 | 17.0 | 0.00 | 0.00 | 0.00 | 61 | 1014.0 |
| 20260505025919 | 62 | 184 | 6.0 | 17.0 | 0.00 | 0.00 | 0.00 | 61 | 1013.9 |
| 20260505025820 | 62 | 188 | 6.0 | 17.0 | 0.00 | 0.00 | 0.00 | 61 | 1013.8 |
| 20260505025721 | 63 | 209 | 6.0 | 17.0 | 0.00 | 0.00 | 0.00 | 61 | 1013.8 |
| 20260505025619 | 63 | 106 | 6.0 | 17.0 | 0.00 | 0.00 | 0.00 | 61 | 1013.9 |
| 20260505025521 | 63 | 196 | 6.0 | 17.0 | 0.00 | 0.00 | 0.00 | 61 | 1013.9 |
| 20260505025419 | 63 | 196 | 6.0 | 16.0 | 0.00 | 0.00 | 0.00 | 61 | 1013.8 |
| 20260505025320 | 63 | 224 | 6.0 | 16.0 | 0.00 | 0.00 | 0.00 | 60 | 1013.8 |
| 20260505025219 | 63 | 195 | 6.0 | 16.0 | 0.00 | 0.00 | 0.00 | 61 | 1013.8 |
| 20260505025119 | 63 | 188 | 6.0 | 16.0 | 0.00 | 0.00 | 0.00 | 60 | 1013.9 |
| 20260505025019 | 63 | 181 | 6.0 | 16.0 | 0.00 | 0.00 | 0.00 | 61 | 1013.8 |
| 20260505024919 | 63 | 186 | 6.0 | 16.0 | 0.00 | 0.00 | 0.00 | 60 | 1013.9 |
| 20260505024853 | 63 | 178 | 6.0 | 15.0 | 0.00 | 0.00 | 0.00 | 60 | 1014.0 |
| 20260505024841 | 63 | 211 | 6.0 | 16.0 | 0.00 | 0.00 | 0.00 | 60 | 1013.9 |
| 20260505024619 | 63 | 203 | 5.0 | 15.0 | 0.00 | 0.00 | 0.00 | 60 | 1013.9 |
| 20260505024520 | 63 | 259 | 6.0 | 15.0 | 0.00 | 0.00 | 0.00 | 60 | 1013.9 |
| 20260505024420 | 63 | 222 | 5.0 | 15.0 | 0.00 | 0.00 | 0.00 | 60 | 1013.9 |
| 20260505024334 | 63 | 196 | 5.0 | 22.0 | 0.00 | 0.00 | 0.00 | 61 | 1013.9 |
| 20260505024324 | 63 | 186 | 5.0 | 15.0 | 0.00 | 0.00 | 0.00 | 61 | 1014.0 |
| 20260505024316 | 63 | 197 | 5.0 | 22.0 | 0.00 | 0.00 | 0.00 | 60 | 1014.0 |
| 20260505024257 | 63 | 218 | 5.0 | 15.0 | 0.00 | 0.00 | 0.00 | 60 | 1014.0 |
| 20260505023916 | 63 | 198 | 5.0 | 22.0 | 0.00 | 0.00 | 0.00 | 60 | 1014.0 |
| 20260505023815 | 63 | 201 | 5.0 | 22.0 | 0.00 | 0.00 | 0.00 | 60 | 1014.0 |
| 20260505023713 | 63 | 244 | 5.0 | 22.0 | 0.00 | 0.00 | 0.00 | 61 | 1014.0 |
| 20260505023608 | 63 | 196 | 5.0 | 22.0 | 0.00 | 0.00 | 0.00 | 60 | 1014.0 |
| 20260505023508 | 63 | 196 | 5.0 | 22.0 | 0.00 | 0.00 | 0.00 | 60 | 1014.0 |
| 20260505023408 | 63 | 223 | 6.0 | 22.0 | 0.00 | 0.00 | 0.00 | 60 | 1013.9 |
| 20260505023309 | 63 | 199 | 6.0 | 22.0 | 0.00 | 0.00 | 0.00 | 60 | 1014.0 |
| 20260505023233 | 63 | 273 | 6.0 | 19.0 | 0.00 | 0.00 | 0.00 | 60 | 1014.0 |
| 20260505023224 | 63 | 197 | 6.0 | 19.0 | 0.00 | 0.00 | 0.00 | 61 | 1014.0 |
| 20260505023000 | 63 | 181 | 6.0 | 19.0 | 0.00 | 0.00 | 0.00 | 60 | 1014.0 |
| 20260505022903 | 63 | 175 | 6.0 | 19.0 | 0.00 | 0.00 | 0.00 | 60 | 1014.0 |
| 20260505022802 | 63 | 202 | 5.0 | 14.0 | 0.00 | 0.00 | 0.00 | 60 | 1014.1 |
| 20260505022702 | 63 | 114 | 5.0 | 14.0 | 0.00 | 0.00 | 0.00 | 60 | 1014.1 |
| 20260505022655 | 63 | 182 | 5.0 | 14.0 | 0.00 | 0.00 | 0.00 | 60 | 1014.0 |
| 20260505022651 | 63 | 207 | 5.0 | 13.0 | 0.00 | 0.00 | 0.00 | 60 | 1014.1 |
| 20260505022628 | 63 | 183 | 5.0 | 14.0 | 0.00 | 0.00 | 0.00 | 60 | 1014.2 |
| 20260505022250 | 63 | 189 | 5.0 | 13.0 | 0.00 | 0.00 | 0.00 | 60 | 1014.1 |
| 20260505022149 | 63 | 221 | 5.0 | 13.0 | 0.00 | 0.00 | 0.00 | 60 | 1014.1 |
| 20260505022122 | 63 | 204 | 5.0 | 12.0 | 0.00 | 0.00 | 0.00 | 60 | 1014.1 |
| 20260505022112 | 63 | 184 | 5.0 | 13.0 | 0.00 | 0.00 | 0.00 | 60 | 1014.1 |
| 20260505021850 | 63 | 181 | 5.0 | 12.0 | 0.00 | 0.00 | 0.00 | 60 | 1014.1 |
| 20260505021748 | 63 | 196 | 5.0 | 12.0 | 0.00 | 0.00 | 0.00 | 60 | 1014.2 |
| 20260505021649 | 63 | 194 | 5.0 | 13.0 | 0.00 | 0.00 | 0.00 | 60 | 1014.1 |
| 20260505021549 | 63 | 277 | 4.0 | 13.0 | 0.00 | 0.00 | 0.00 | 60 | 1014.2 |
| 20260505021451 | 63 | 205 | 5.0 | 13.0 | 0.00 | 0.00 | 0.00 | 60 | 1014.2 |
| 20260505021349 | 63 | 219 | 5.0 | 13.0 | 0.00 | 0.00 | 0.00 | 60 | 1014.2 |
| 20260505021249 | 63 | 207 | 5.0 | 13.0 | 0.00 | 0.00 | 0.00 | 60 | 1014.2 |
| 20260505021149 | 63 | 204 | 5.0 | 13.0 | 0.00 | 0.00 | 0.00 | 61 | 1014.2 |
| 20260505021127 | 64 | 190 | 5.0 | 13.0 | 0.00 | 0.00 | 0.00 | 60 | 1014.2 |
| 20260505021115 | 64 | 155 | 5.0 | 13.0 | 0.00 | 0.00 | 0.00 | 60 | 1014.2 |
| 20260505020851 | 64 | 234 | 5.0 | 15.0 | 0.00 | 0.00 | 0.00 | 60 | 1014.2 |
| 20260505020750 | 64 | 108 | 5.0 | 15.0 | 0.00 | 0.00 | 0.00 | 60 | 1014.0 |
| 20260505020649 | 64 | 195 | 5.0 | 15.0 | 0.00 | 0.00 | 0.00 | 60 | 1014.1 |
| 20260505020550 | 64 | 196 | 5.0 | 15.0 | 0.00 | 0.00 | 0.00 | 59 | 1014.0 |
| 20260505020451 | 64 | 174 | 5.0 | 15.0 | 0.00 | 0.00 | 0.00 | 60 | 1014.0 |
| 20260505020349 | 64 | 175 | 5.0 | 15.0 | 0.00 | 0.00 | 0.00 | 60 | 1014.0 |
| 20260505020248 | 64 | 183 | 5.0 | 15.0 | 0.00 | 0.00 | 0.00 | 60 | 1014.0 |
| 20260505020225 | 64 | 171 | 5.0 | 15.0 | 0.00 | 0.00 | 0.00 | 60 | 1014.0 |
| 20260505020211 | 64 | 153 | 5.0 | 15.0 | 0.00 | 0.00 | 0.00 | 60 | 1014.0 |
| 20260505015947 | 64 | 194 | 5.0 | 15.0 | 0.00 | 0.00 | 0.00 | 60 | 1014.0 |
| 20260505015849 | 64 | 246 | 5.0 | 13.0 | 0.00 | 0.00 | 0.00 | 60 | 1014.0 |
| 20260505015826 | 64 | 190 | 5.0 | 13.0 | 0.00 | 0.00 | 0.00 | 60 | 1014.1 |
| 20260505015814 | 64 | 234 | 5.0 | 13.0 | 0.00 | 0.00 | 0.00 | 60 | 1014.0 |
| 20260505015545 | 64 | 199 | 5.0 | 13.0 | 0.00 | 0.00 | 0.00 | 60 | 1014.1 |
| 20260505015525 | 64 | 142 | 5.0 | 13.0 | 0.00 | 0.00 | 0.00 | 60 | 1014.0 |
| 20260505015511 | 64 | 155 | 5.0 | 13.0 | 0.00 | 0.00 | 0.00 | 59 | 1014.0 |
| 20260505015246 | 64 | 217 | 5.0 | 13.0 | 0.00 | 0.00 | 0.00 | 60 | 1014.0 |
| 20260505015209 | 64 | 211 | 5.0 | 13.0 | 0.00 | 0.00 | 0.00 | 60 | 1014.1 |
| 20260505015159 | 64 | 211 | 5.0 | 13.0 | 0.00 | 0.00 | 0.00 | 60 | 1014.0 |
| 20260505014939 | 64 | 202 | 5.0 | 13.0 | 0.00 | 0.00 | 0.00 | 60 | 1014.0 |
| 20260505014838 | 64 | 197 | 5.0 | 13.0 | 0.00 | 0.00 | 0.00 | 61 | 1014.0 |
| 20260505014739 | 64 | 176 | 5.0 | 13.0 | 0.00 | 0.00 | 0.00 | 61 | 1014.1 |
| 20260505014635 | 64 | 182 | 5.0 | 13.0 | 0.00 | 0.00 | 0.00 | 61 | 1014.0 |
| 20260505014533 | 64 | 207 | 5.0 | 13.0 | 0.00 | 0.00 | 0.00 | 60 | 1014.0 |
| 20260505014433 | 64 | 240 | 5.0 | 13.0 | 0.00 | 0.00 | 0.00 | 60 | 1014.0 |
| 20260505014335 | 64 | 132 | 5.0 | 12.0 | 0.00 | 0.00 | 0.00 | 60 | 1014.0 |
| 20260505014233 | 64 | 200 | 5.0 | 12.0 | 0.00 | 0.00 | 0.00 | 60 | 1014.1 |
| 20260505014200 | 64 | 206 | 5.0 | 12.0 | 0.00 | 0.00 | 0.00 | 60 | 1014.0 |
| 20260505014155 | 64 | 217 | 5.0 | 12.0 | 0.00 | 0.00 | 0.00 | 61 | 1014.1 |
| 20260505014149 | 64 | 223 | 5.0 | 14.0 | 0.00 | 0.00 | 0.00 | 61 | 1014.0 |
| 20260505014141 | 64 | 213 | 4.0 | 12.0 | 0.00 | 0.00 | 0.00 | 61 | 1014.1 |
| 20260505013800 | 64 | 201 | 5.0 | 14.0 | 0.00 | 0.00 | 0.00 | 62 | 1014.0 |
| 20260505013748 | 64 | 156 | 5.0 | 14.0 | 0.00 | 0.00 | 0.00 | 62 | 1014.0 |
| 20260505013525 | 64 | 171 | 5.0 | 14.0 | 0.00 | 0.00 | 0.00 | 62 | 1014.0 |
| 20260505013425 | 64 | 180 | 5.0 | 14.0 | 0.00 | 0.00 | 0.00 | 62 | 1014.0 |
| 20260505013325 | 64 | 210 | 5.0 | 14.0 | 0.00 | 0.00 | 0.00 | 62 | 1014.1 |
| 20260505013224 | 64 | 175 | 5.0 | 14.0 | 0.00 | 0.00 | 0.00 | 62 | 1014.1 |
| 20260505013125 | 64 | 217 | 5.0 | 14.0 | 0.00 | 0.00 | 0.00 | 62 | 1014.1 |
| 20260505013100 | 64 | 192 | 5.0 | 14.0 | 0.00 | 0.00 | 0.00 | 61 | 1014.1 |
| 20260505013049 | 64 | 217 | 5.0 | 14.0 | 0.00 | 0.00 | 0.00 | 62 | 1014.1 |
| 20260505012826 | 64 | 191 | 5.0 | 11.0 | 0.00 | 0.00 | 0.00 | 61 | 1014.2 |
| 20260505012736 | 64 | 196 | 4.0 | 11.0 | 0.00 | 0.00 | 0.00 | 62 | 1014.1 |
| 20260505012725 | 64 | 185 | 4.0 | 11.0 | 0.00 | 0.00 | 0.00 | 62 | 1014.1 |
| 20260505012705 | 64 | 187 | 4.0 | 11.0 | 0.00 | 0.00 | 0.00 | 61 | 1014.1 |
| 20260505012544 | 64 | 188 | 4.0 | 11.0 | 0.00 | 0.00 | 0.00 | 62 | 1014.1 |
| 20260505012320 | 64 | 200 | 4.0 | 11.0 | 0.00 | 0.00 | 0.00 | 62 | 1014.1 |
| 20260505012252 | 64 | 218 | 3.0 | 11.0 | 0.00 | 0.00 | 0.00 | 62 | 1014.1 |
| 20260505012242 | 64 | 238 | 4.0 | 11.0 | 0.00 | 0.00 | 0.00 | 62 | 1014.1 |
| 20260505012020 | 64 | 185 | 3.0 | 11.0 | 0.00 | 0.00 | 0.00 | 61 | 1014.1 |
| 20260505011914 | 64 | 237 | 3.0 | 11.0 | 0.00 | 0.00 | 0.00 | 61 | 1014.1 |
| 20260505011814 | 64 | 229 | 3.0 | 9.0 | 0.00 | 0.00 | 0.00 | 61 | 1014.1 |
| 20260505011753 | 64 | 180 | 3.0 | 9.0 | 0.00 | 0.00 | 0.00 | 61 | 1014.0 |
| 20260505011740 | 64 | 190 | 3.0 | 9.0 | 0.00 | 0.00 | 0.00 | 61 | 1014.1 |
| 20260505011514 | 64 | 202 | 3.0 | 9.0 | 0.00 | 0.00 | 0.00 | 61 | 1014.0 |
| 20260505011407 | 64 | 179 | 3.0 | 9.0 | 0.00 | 0.00 | 0.00 | 61 | 1014.1 |
| 20260505011306 | 64 | 220 | 3.0 | 9.0 | 0.00 | 0.00 | 0.00 | 60 | 1014.1 |
| 20260505011208 | 64 | 204 | 3.0 | 9.0 | 0.00 | 0.00 | 0.00 | 60 | 1014.0 |
| 20260505011106 | 64 | 200 | 3.0 | 9.0 | 0.00 | 0.00 | 0.00 | 60 | 1014.1 |
| 20260505011008 | 64 | 205 | 4.0 | 10.0 | 0.00 | 0.00 | 0.00 | 60 | 1014.0 |
| 20260505010945 | 65 | 176 | 3.0 | 10.0 | 0.00 | 0.00 | 0.00 | 60 | 1014.0 |
| 20260505010930 | 64 | 192 | 4.0 | 10.0 | 0.00 | 0.00 | 0.00 | 60 | 1014.0 |
| 20260505010733 | 64 | 210 | 4.0 | 12.0 | 0.00 | 0.00 | 0.00 | 60 | 1014.0 |
| 20260505010721 | 65 | 161 | 4.0 | 12.0 | 0.00 | 0.00 | 0.00 | 60 | 1014.0 |
| 20260505010458 | 64 | 190 | 4.0 | 12.0 | 0.00 | 0.00 | 0.00 | 60 | 1014.0 |
| 20260505010352 | 64 | 205 | 3.0 | 12.0 | 0.00 | 0.00 | 0.00 | 60 | 1014.0 |
| 20260505010253 | 65 | 208 | 3.0 | 12.0 | 0.00 | 0.00 | 0.00 | 60 | 1014.1 |
| 20260505010227 | 64 | 212 | 3.0 | 12.0 | 0.00 | 0.00 | 0.00 | 60 | 1014.0 |
| 20260505010215 | 64 | 164 | 3.0 | 12.0 | 0.00 | 0.00 | 0.00 | 60 | 1014.1 |
| 20260505005952 | 64 | 249 | 3.0 | 12.0 | 0.00 | 0.00 | 0.00 | 60 | 1014.0 |
| 20260505005844 | 64 | 170 | 3.0 | 12.0 | 0.00 | 0.00 | 0.00 | 60 | 1014.0 |
| 20260505005745 | 65 | 77 | 3.0 | 12.0 | 0.00 | 0.00 | 0.00 | 61 | 1014.0 |
| 20260505005646 | 65 | 252 | 3.0 | 9.0 | 0.00 | 0.00 | 0.00 | 61 | 1014.0 |
| 20260505005546 | 65 | 191 | 3.0 | 9.0 | 0.00 | 0.00 | 0.00 | 60 | 1014.0 |
| 20260505005446 | 65 | 198 | 3.0 | 9.0 | 0.00 | 0.00 | 0.00 | 60 | 1014.0 |
| 20260505005410 | 65 | 202 | 3.0 | 9.0 | 0.00 | 0.00 | 0.00 | 60 | 1014.0 |
| 20260505005355 | 65 | 214 | 3.0 | 9.0 | 0.00 | 0.00 | 0.00 | 61 | 1014.0 |
| 20260505005134 | 65 | 241 | 3.0 | 9.0 | 0.00 | 0.00 | 0.00 | 61 | 1014.0 |
| 20260505005034 | 65 | 250 | 3.0 | 10.0 | 0.00 | 0.00 | 0.00 | 60 | 1014.0 |
| 20260505004931 | 65 | 196 | 3.0 | 10.0 | 0.00 | 0.00 | 0.00 | 60 | 1014.0 |
| 20260505004829 | 65 | 177 | 3.0 | 10.0 | 0.00 | 0.00 | 0.00 | 60 | 1014.0 |
| 20260505004728 | 65 | 193 | 3.0 | 10.0 | 0.00 | 0.00 | 0.00 | 60 | 1014.0 |
| 20260505004626 | 65 | 193 | 3.0 | 10.0 | 0.00 | 0.00 | 0.00 | 60 | 1014.0 |
| 20260505004556 | 65 | 208 | 3.0 | 10.0 | 0.00 | 0.00 | 0.00 | 60 | 1014.1 |
| 20260505004546 | 65 | 174 | 3.0 | 10.0 | 0.00 | 0.00 | 0.00 | 60 | 1014.0 |
| 20260505004355 | 65 | 188 | 3.0 | 10.0 | 0.00 | 0.00 | 0.00 | 60 | 1014.1 |
| 20260505004343 | 65 | 243 | 3.0 | 10.0 | 0.00 | 0.00 | 0.00 | 61 | 1014.0 |
| 20260505004119 | 65 | 202 | 3.0 | 10.0 | 0.00 | 0.00 | 0.00 | 61 | 1014.0 |
| 20260505004019 | 65 | 165 | 3.0 | 9.0 | 0.00 | 0.00 | 0.00 | 61 | 1014.1 |
| 20260505003920 | 65 | 212 | 3.0 | 9.0 | 0.00 | 0.00 | 0.00 | 61 | 1014.1 |
| 20260505003814 | 65 | 182 | 3.0 | 8.0 | 0.00 | 0.00 | 0.00 | 61 | 1014.1 |
| 20260505003714 | 65 | 207 | 3.0 | 8.0 | 0.00 | 0.00 | 0.00 | 61 | 1014.0 |
| 20260505003610 | 65 | 201 | 3.0 | 8.0 | 0.00 | 0.00 | 0.00 | 61 | 1014.1 |
| 20260505003512 | 65 | 205 | 3.0 | 8.0 | 0.00 | 0.00 | 0.00 | 61 | 1014.1 |
| 20260505003411 | 65 | 98 | 3.0 | 8.0 | 0.00 | 0.00 | 0.00 | 61 | 1014.0 |
| 20260505003311 | 65 | 200 | 3.0 | 8.0 | 0.00 | 0.00 | 0.00 | 60 | 1014.0 |
| 20260505003211 | 65 | 210 | 3.0 | 8.0 | 0.00 | 0.00 | 0.00 | 60 | 1014.0 |
| 20260505003110 | 65 | 205 | 3.0 | 8.0 | 0.00 | 0.00 | 0.00 | 60 | 1014.0 |
| 20260505003010 | 65 | 208 | 3.0 | 8.0 | 0.00 | 0.00 | 0.00 | 61 | 1014.0 |
| 20260505002948 | 65 | 203 | 2.0 | 8.0 | 0.00 | 0.00 | 0.00 | 60 | 1014.0 |
| 20260505002944 | 65 | 213 | 3.0 | 10.0 | 0.00 | 0.00 | 0.00 | 59 | 1014.0 |
| 20260505002938 | 65 | 211 | 3.0 | 11.0 | 0.00 | 0.00 | 0.00 | 59 | 1014.0 |
| 20260505002933 | 65 | 273 | 3.0 | 11.0 | 0.00 | 0.00 | 0.00 | 60 | 1014.0 |
| 20260505002928 | 65 | 171 | 3.0 | 11.0 | 0.00 | 0.00 | 0.00 | 59 | 1014.0 |
| 20260505002922 | 66 | 190 | 3.0 | 11.0 | 0.00 | 0.00 | 0.00 | 60 | 1014.1 |
| 20260505002912 | 65 | 215 | 3.0 | 8.0 | 0.00 | 0.00 | 0.00 | 60 | 1014.0 |
| 20260505002851 | 65 | 229 | 3.0 | 8.0 | 0.00 | 0.00 | 0.00 | 60 | 1014.0 |
| 20260505002709 | 65 | 245 | 2.0 | 8.0 | 0.00 | 0.00 | 0.00 | 60 | 1014.0 |
| 20260505002412 | 65 | 217 | 3.0 | 11.0 | 0.00 | 0.00 | 0.00 | 60 | 1014.0 |
| 20260505001908 | 66 | 208 | 3.0 | 11.0 | 0.00 | 0.00 | 0.00 | 59 | 1013.9 |
| 20260505001835 | 66 | 184 | 3.0 | 11.0 | 0.00 | 0.00 | 0.00 | 59 | 1014.0 |
| 20260505001826 | 66 | 194 | 3.0 | 11.0 | 0.00 | 0.00 | 0.00 | 59 | 1014.0 |
| 20260505001606 | 66 | 145 | 3.0 | 11.0 | 0.00 | 0.00 | 0.00 | 59 | 1014.0 |
| 20260505001505 | 66 | 178 | 3.0 | 11.0 | 0.00 | 0.00 | 0.00 | 59 | 1014.0 |
| 20260505001405 | 66 | 239 | 3.0 | 11.0 | 0.00 | 0.00 | 0.00 | 59 | 1014.0 |
| 20260505001306 | 66 | 188 | 4.0 | 16.0 | 0.00 | 0.00 | 0.00 | 59 | 1014.0 |
| 20260505001237 | 66 | 207 | 4.0 | 16.0 | 0.00 | 0.00 | 0.00 | 59 | 1014.0 |
| 20260505001227 | 66 | 228 | 4.0 | 16.0 | 0.00 | 0.00 | 0.00 | 59 | 1014.0 |
| 20260505001003 | 66 | 160 | 4.0 | 16.0 | 0.00 | 0.00 | 0.00 | 58 | 1014.0 |
| 20260505000902 | 66 | 219 | 4.0 | 16.0 | 0.00 | 0.00 | 0.00 | 58 | 1014.0 |
| 20260505000804 | 66 | 193 | 4.0 | 16.0 | 0.00 | 0.00 | 0.00 | 58 | 1013.9 |
| 20260505000704 | 66 | 229 | 3.0 | 16.0 | 0.00 | 0.00 | 0.00 | 58 | 1013.9 |
| 20260505000632 | 66 | 166 | 3.0 | 16.0 | 0.00 | 0.00 | 0.00 | 58 | 1013.9 |
| 20260505000622 | 66 | 233 | 4.0 | 16.0 | 0.00 | 0.00 | 0.00 | 58 | 1013.9 |
| 20260505000358 | 66 | 242 | 3.0 | 16.0 | 0.00 | 0.00 | 0.00 | 58 | 1013.9 |
| 20260505000257 | 66 | 240 | 3.0 | 12.0 | 0.00 | 0.00 | 0.00 | 59 | 1013.9 |
| 20260505000156 | 66 | 224 | 3.0 | 12.0 | 0.00 | 0.00 | 0.00 | 59 | 1013.9 |
| 20260505000057 | 66 | 215 | 3.0 | 12.0 | 0.00 | 0.00 | 0.00 | 58 | 1014.0 |
| 20260504235957 | 66 | 232 | 3.0 | 12.0 | 0.00 | 0.00 | 0.00 | 58 | 1013.9 |
| 20260504235857 | 66 | 236 | 3.0 | 12.0 | 0.00 | 0.00 | 0.00 | 58 | 1013.9 |
| 20260504235757 | 66 | 160 | 3.0 | 12.0 | 0.00 | 0.00 | 0.00 | 58 | 1013.9 |
| 20260504235656 | 66 | 205 | 3.0 | 12.0 | 0.00 | 0.00 | 0.00 | 58 | 1013.9 |
| 20260504235557 | 67 | 228 | 3.0 | 12.0 | 0.00 | 0.00 | 0.00 | 58 | 1013.9 |
| 20260504235457 | 67 | 178 | 3.0 | 12.0 | 0.00 | 0.00 | 0.00 | 57 | 1014.0 |